| time (UTC) | temp F | wind direction | speed MPH | gust MPH | rain 1hr in | rain 24hr in | rain mn in | humidity % | barometer mb |
| 20260902095629 | 63 | 144 | 6.0 | 17.0 | 0.00 | 0.00 | 0.00 | 63 | 1006.2 |
| 20260902095536 | 63 | 173 | 5.0 | 8.0 | 0.00 | 0.00 | 0.00 | 63 | 1006.3 |
| 20260902095444 | 63 | 173 | 4.0 | 10.0 | 0.00 | 0.00 | 0.00 | 63 | 1006.2 |
| 20260902095420 | 63 | 220 | 3.0 | 11.0 | 0.00 | 0.00 | 0.00 | 63 | 1006.3 |
| 20260902095401 | 63 | 247 | 3.0 | 11.0 | 0.00 | 0.00 | 0.00 | 63 | 1006.2 |
| 20260902095032 | 63 | 207 | 3.0 | 11.0 | 0.00 | 0.00 | 0.00 | 63 | 1006.3 |
| 20260902094928 | 63 | 192 | 3.0 | 11.0 | 0.00 | 0.00 | 0.00 | 63 | 1006.3 |
| 20260902094828 | 63 | 220 | 4.0 | 11.0 | 0.00 | 0.00 | 0.00 | 63 | 1006.3 |
| 20260902094729 | 63 | 234 | 4.0 | 11.0 | 0.00 | 0.00 | 0.00 | 63 | 1006.3 |
| 20260902094628 | 63 | 128 | 5.0 | 11.0 | 0.00 | 0.00 | 0.00 | 63 | 1006.3 |
| 20260902094529 | 63 | 185 | 6.0 | 11.0 | 0.00 | 0.00 | 0.00 | 63 | 1006.3 |
| 20260902094431 | 63 | 182 | 4.0 | 11.0 | 0.00 | 0.00 | 0.00 | 63 | 1006.3 |
| 20260902094351 | 63 | 169 | 2.0 | 11.0 | 0.00 | 0.00 | 0.00 | 63 | 1006.3 |
| 20260902094329 | 63 | 224 | 3.0 | 11.0 | 0.00 | 0.00 | 0.00 | 63 | 1006.3 |
| 20260902094308 | 63 | 220 | 4.0 | 11.0 | 0.00 | 0.00 | 0.00 | 63 | 1006.3 |
| 20260902094249 | 63 | 246 | 4.0 | 10.0 | 0.00 | 0.00 | 0.00 | 63 | 1006.3 |
| 20260902093941 | 63 | 192 | 4.0 | 10.0 | 0.00 | 0.00 | 0.00 | 63 | 1006.4 |
| 20260902093920 | 63 | 215 | 4.0 | 11.0 | 0.00 | 0.00 | 0.00 | 63 | 1006.3 |
| 20260902093859 | 63 | 282 | 3.0 | 11.0 | 0.00 | 0.00 | 0.00 | 62 | 1006.2 |
| 20260902093836 | 63 | 259 | 3.0 | 15.0 | 0.00 | 0.00 | 0.00 | 63 | 1006.3 |
| 20260902093804 | 63 | 219 | 2.0 | 15.0 | 0.00 | 0.00 | 0.00 | 62 | 1006.3 |
| 20260902093743 | 63 | 268 | 3.0 | 15.0 | 0.00 | 0.00 | 0.00 | 62 | 1006.2 |
| 20260902093723 | 63 | 119 | 3.0 | 15.0 | 0.00 | 0.00 | 0.00 | 62 | 1006.3 |
| 20260902093701 | 63 | 134 | 3.0 | 15.0 | 0.00 | 0.00 | 0.00 | 62 | 1006.2 |
| 20260902093642 | 63 | 271 | 4.0 | 15.0 | 0.00 | 0.00 | 0.00 | 62 | 1006.2 |
| 20260902093607 | 63 | 294 | 4.0 | 15.0 | 0.00 | 0.00 | 0.00 | 62 | 1006.0 |
| 20260902093547 | 63 | 207 | 6.0 | 15.0 | 0.00 | 0.00 | 0.00 | 62 | 1006.1 |
| 20260902093523 | 63 | 223 | 7.0 | 15.0 | 0.00 | 0.00 | 0.00 | 62 | 1006.0 |
| 20260902093235 | 63 | 203 | 5.0 | 11.0 | 0.00 | 0.00 | 0.00 | 62 | 1006.0 |
| 20260902092704 | 63 | 250 | 4.0 | 11.0 | 0.00 | 0.00 | 0.00 | 61 | 1006.0 |
| 20260902091821 | 64 | 206 | 4.0 | 14.0 | 0.00 | 0.00 | 0.00 | 61 | 1006.0 |
| 20260902091719 | 64 | 218 | 5.0 | 14.0 | 0.00 | 0.00 | 0.00 | 61 | 1006.0 |
| 20260902091620 | 64 | 188 | 5.0 | 14.0 | 0.00 | 0.00 | 0.00 | 61 | 1006.1 |
| 20260902091518 | 64 | 191 | 4.0 | 19.0 | 0.00 | 0.00 | 0.00 | 61 | 1006.1 |
| 20260902091430 | 63 | 174 | 4.0 | 19.0 | 0.00 | 0.00 | 0.00 | 61 | 1006.1 |
| 20260902091407 | 64 | 252 | 4.0 | 19.0 | 0.00 | 0.00 | 0.00 | 61 | 1006.1 |
| 20260902091347 | 63 | 179 | 6.0 | 19.0 | 0.00 | 0.00 | 0.00 | 62 | 1006.1 |
| 20260902091041 | 63 | 157 | 3.0 | 19.0 | 0.00 | 0.00 | 0.00 | 62 | 1006.1 |
| 20260902091004 | 63 | 151 | 3.0 | 19.0 | 0.00 | 0.00 | 0.00 | 62 | 1006.1 |
| 20260902090945 | 63 | 202 | 4.0 | 19.0 | 0.00 | 0.00 | 0.00 | 62 | 1006.1 |
| 20260902090638 | 63 | 255 | 6.0 | 19.0 | 0.00 | 0.00 | 0.00 | 62 | 1006.2 |
| 20260902090615 | 63 | 217 | 6.0 | 13.0 | 0.00 | 0.00 | 0.00 | 62 | 1006.2 |
| 20260902090541 | 63 | 209 | 5.0 | 11.0 | 0.00 | 0.00 | 0.00 | 62 | 1006.2 |
| 20260902090209 | 63 | 202 | 3.0 | 11.0 | 0.00 | 0.00 | 0.00 | 62 | 1006.2 |
| 20260902090109 | 63 | 258 | 4.0 | 11.0 | 0.00 | 0.00 | 0.00 | 62 | 1006.2 |
| 20260902090009 | 63 | 203 | 3.0 | 11.0 | 0.00 | 0.00 | 0.00 | 62 | 1006.2 |
| 20260902085909 | 63 | 268 | 1.0 | 8.0 | 0.00 | 0.00 | 0.00 | 62 | 1006.1 |
| 20260902085809 | 63 | 237 | 3.0 | 8.0 | 0.00 | 0.00 | 0.00 | 62 | 1006.2 |
| 20260902085706 | 63 | 130 | 4.0 | 8.0 | 0.00 | 0.00 | 0.00 | 62 | 1006.1 |
| 20260902085616 | 63 | 201 | 4.0 | 9.0 | 0.00 | 0.00 | 0.00 | 62 | 1006.2 |
| 20260902085553 | 64 | 247 | 3.0 | 10.0 | 0.00 | 0.00 | 0.00 | 62 | 1006.1 |
| 20260902085518 | 64 | 204 | 3.0 | 10.0 | 0.00 | 0.00 | 0.00 | 63 | 1006.2 |
| 20260902085456 | 64 | 169 | 3.0 | 12.0 | 0.00 | 0.00 | 0.00 | 63 | 1006.2 |
| 20260902085436 | 64 | 231 | 3.0 | 12.0 | 0.00 | 0.00 | 0.00 | 63 | 1006.2 |
| 20260902085412 | 64 | 197 | 4.0 | 12.0 | 0.00 | 0.00 | 0.00 | 63 | 1006.2 |
| 20260902084800 | 64 | 242 | 5.0 | 12.0 | 0.00 | 0.00 | 0.00 | 63 | 1006.3 |
| 20260902084700 | 64 | 246 | 4.0 | 12.0 | 0.00 | 0.00 | 0.00 | 63 | 1006.3 |
| 20260902084559 | 64 | 153 | 4.0 | 12.0 | 0.00 | 0.00 | 0.00 | 63 | 1006.3 |
| 20260902084523 | 64 | 192 | 4.0 | 12.0 | 0.00 | 0.00 | 0.00 | 63 | 1006.3 |
| 20260902084447 | 64 | 302 | 4.0 | 12.0 | 0.00 | 0.00 | 0.00 | 63 | 1006.3 |
| 20260902084426 | 64 | 260 | 4.0 | 9.0 | 0.00 | 0.00 | 0.00 | 63 | 1006.3 |
| 20260902084056 | 64 | 240 | 4.0 | 13.0 | 0.00 | 0.00 | 0.00 | 63 | 1006.3 |
| 20260902083956 | 64 | 238 | 3.0 | 13.0 | 0.00 | 0.00 | 0.00 | 63 | 1006.3 |
| 20260902083856 | 64 | 242 | 4.0 | 13.0 | 0.00 | 0.00 | 0.00 | 63 | 1006.2 |
| 20260902083833 | 64 | 175 | 3.0 | 13.0 | 0.00 | 0.00 | 0.00 | 63 | 1006.2 |
| 20260902083813 | 64 | 190 | 4.0 | 13.0 | 0.00 | 0.00 | 0.00 | 63 | 1006.2 |
| 20260902083750 | 64 | 175 | 4.0 | 13.0 | 0.00 | 0.00 | 0.00 | 63 | 1006.3 |
| 20260902083443 | 64 | 146 | 6.0 | 13.0 | 0.00 | 0.00 | 0.00 | 63 | 1006.2 |
| 20260902083421 | 64 | 198 | 6.0 | 15.0 | 0.00 | 0.00 | 0.00 | 63 | 1006.1 |
| 20260902083403 | 64 | 209 | 5.0 | 15.0 | 0.00 | 0.00 | 0.00 | 62 | 1006.1 |
| 20260902083111 | 64 | 209 | 4.0 | 15.0 | 0.00 | 0.00 | 0.00 | 62 | 1006.1 |
| 20260902083036 | 64 | 259 | 4.0 | 15.0 | 0.00 | 0.00 | 0.00 | 62 | 1006.1 |
| 20260902083015 | 64 | 205 | 3.0 | 15.0 | 0.00 | 0.00 | 0.00 | 62 | 1006.1 |
| 20260902082952 | 64 | 168 | 3.0 | 15.0 | 0.00 | 0.00 | 0.00 | 62 | 1006.0 |
| 20260902082931 | 64 | 255 | 6.0 | 15.0 | 0.00 | 0.00 | 0.00 | 62 | 1006.1 |
| 20260902082628 | 64 | 179 | 6.0 | 15.0 | 0.00 | 0.00 | 0.00 | 62 | 1006.0 |
| 20260902082604 | 65 | 140 | 6.0 | 13.0 | 0.00 | 0.00 | 0.00 | 61 | 1006.0 |
| 20260902082544 | 65 | 192 | 5.0 | 12.0 | 0.00 | 0.00 | 0.00 | 61 | 1006.0 |
| 20260902082252 | 65 | 200 | 4.0 | 12.0 | 0.00 | 0.00 | 0.00 | 61 | 1006.0 |
| 20260902081950 | 65 | 212 | 4.0 | 16.0 | 0.00 | 0.00 | 0.00 | 61 | 1005.9 |
| 20260902081929 | 65 | 148 | 4.0 | 16.0 | 0.00 | 0.00 | 0.00 | 60 | 1005.8 |
| 20260902081635 | 65 | 232 | 4.0 | 16.0 | 0.00 | 0.00 | 0.00 | 60 | 1005.9 |
| 20260902081601 | 65 | 187 | 5.0 | 16.0 | 0.00 | 0.00 | 0.00 | 60 | 1005.9 |
| 20260902081309 | 65 | 202 | 6.0 | 16.0 | 0.00 | 0.00 | 0.00 | 59 | 1005.9 |
| 20260902080940 | 65 | 115 | 6.0 | 16.0 | 0.00 | 0.00 | 0.00 | 58 | 1005.9 |
| 20260902080836 | 65 | 173 | 6.0 | 16.0 | 0.00 | 0.00 | 0.00 | 58 | 1005.8 |
| 20260902080736 | 65 | 186 | 5.0 | 12.0 | 0.00 | 0.00 | 0.00 | 58 | 1005.9 |
| 20260902080636 | 65 | 205 | 4.0 | 12.0 | 0.00 | 0.00 | 0.00 | 58 | 1005.9 |
| 20260902080535 | 65 | 209 | 4.0 | 12.0 | 0.00 | 0.00 | 0.00 | 58 | 1005.9 |
| 20260902080437 | 65 | 258 | 3.0 | 12.0 | 0.00 | 0.00 | 0.00 | 58 | 1005.9 |
| 20260902080334 | 65 | 280 | 4.0 | 12.0 | 0.00 | 0.00 | 0.00 | 58 | 1005.9 |
| 20260902080232 | 65 | 252 | 6.0 | 12.0 | 0.00 | 0.00 | 0.00 | 58 | 1006.0 |
| 20260902080142 | 65 | 246 | 6.0 | 12.0 | 0.00 | 0.00 | 0.00 | 57 | 1006.0 |
| 20260902080053 | 65 | 213 | 7.0 | 14.0 | 0.00 | 0.00 | 0.00 | 57 | 1006.0 |
| 20260902080031 | 65 | 208 | 7.0 | 14.0 | 0.00 | 0.00 | 0.00 | 57 | 1006.1 |
| 20260902075956 | 65 | 209 | 5.0 | 14.0 | 0.00 | 0.00 | 0.00 | 57 | 1006.0 |
| 20260902075933 | 66 | 213 | 5.0 | 14.0 | 0.00 | 0.00 | 0.00 | 57 | 1006.0 |
| 20260902075912 | 66 | 182 | 7.0 | 14.0 | 0.00 | 0.00 | 0.00 | 57 | 1006.0 |
| 20260902075850 | 66 | 191 | 6.0 | 14.0 | 0.00 | 0.00 | 0.00 | 57 | 1006.0 |
| 20260902075829 | 66 | 229 | 4.0 | 14.0 | 0.00 | 0.00 | 0.00 | 57 | 1005.9 |
| 20260902075755 | 66 | 196 | 4.0 | 14.0 | 0.00 | 0.00 | 0.00 | 57 | 1006.0 |
| 20260902075734 | 66 | 215 | 4.0 | 14.0 | 0.00 | 0.00 | 0.00 | 57 | 1006.0 |
| 20260902075715 | 66 | 276 | 5.0 | 14.0 | 0.00 | 0.00 | 0.00 | 56 | 1006.1 |
| 20260902075651 | 66 | 229 | 5.0 | 11.0 | 0.00 | 0.00 | 0.00 | 56 | 1006.0 |
| 20260902075631 | 66 | 203 | 4.0 | 12.0 | 0.00 | 0.00 | 0.00 | 56 | 1006.0 |
| 20260902075330 | 66 | 190 | 5.0 | 12.0 | 0.00 | 0.00 | 0.00 | 56 | 1005.9 |
| 20260902075038 | 66 | 292 | 4.0 | 12.0 | 0.00 | 0.00 | 0.00 | 57 | 1005.9 |
| 20260902074505 | 66 | 273 | 4.0 | 12.0 | 0.00 | 0.00 | 0.00 | 57 | 1005.9 |
| 20260902074445 | 66 | 245 | 5.0 | 12.0 | 0.00 | 0.00 | 0.00 | 57 | 1005.9 |
| 20260902074422 | 66 | 182 | 5.0 | 12.0 | 0.00 | 0.00 | 0.00 | 57 | 1005.9 |
| 20260902074118 | 66 | 224 | 5.0 | 12.0 | 0.00 | 0.00 | 0.00 | 57 | 1005.9 |
| 20260902074056 | 66 | 270 | 6.0 | 12.0 | 0.00 | 0.00 | 0.00 | 57 | 1005.9 |
| 20260902074036 | 66 | 232 | 4.0 | 11.0 | 0.00 | 0.00 | 0.00 | 57 | 1005.9 |
| 20260902073742 | 66 | 202 | 4.0 | 11.0 | 0.00 | 0.00 | 0.00 | 57 | 1005.8 |
| 20260902073131 | 66 | 291 | 4.0 | 10.0 | 0.00 | 0.00 | 0.00 | 57 | 1005.8 |
| 20260902073030 | 66 | 186 | 4.0 | 10.0 | 0.00 | 0.00 | 0.00 | 57 | 1005.7 |
| 20260902072929 | 66 | 202 | 3.0 | 10.0 | 0.00 | 0.00 | 0.00 | 57 | 1005.8 |
| 20260902072830 | 66 | 245 | 4.0 | 10.0 | 0.00 | 0.00 | 0.00 | 57 | 1005.8 |
| 20260902072728 | 66 | 123 | 4.0 | 10.0 | 0.00 | 0.00 | 0.00 | 57 | 1005.8 |
| 20260902072628 | 66 | 186 | 5.0 | 10.0 | 0.00 | 0.00 | 0.00 | 57 | 1005.8 |
| 20260902072526 | 66 | 171 | 4.0 | 10.0 | 0.00 | 0.00 | 0.00 | 57 | 1005.7 |
| 20260902072425 | 66 | 189 | 4.0 | 10.0 | 0.00 | 0.00 | 0.00 | 57 | 1005.8 |
| 20260902072325 | 66 | 302 | 5.0 | 11.0 | 0.00 | 0.00 | 0.00 | 57 | 1005.8 |
| 20260902072223 | 66 | 175 | 5.0 | 11.0 | 0.00 | 0.00 | 0.00 | 57 | 1005.7 |
| 20260902072124 | 66 | 244 | 4.0 | 11.0 | 0.00 | 0.00 | 0.00 | 57 | 1005.7 |
| 20260902072036 | 66 | 142 | 4.0 | 11.0 | 0.00 | 0.00 | 0.00 | 57 | 1005.7 |
| 20260902072014 | 66 | 277 | 4.0 | 11.0 | 0.00 | 0.00 | 0.00 | 58 | 1005.7 |
| 20260902071938 | 66 | 211 | 5.0 | 11.0 | 0.00 | 0.00 | 0.00 | 57 | 1005.8 |
| 20260902071917 | 66 | 219 | 6.0 | 13.0 | 0.00 | 0.00 | 0.00 | 57 | 1005.7 |
| 20260902071855 | 66 | 253 | 4.0 | 13.0 | 0.00 | 0.00 | 0.00 | 57 | 1005.7 |
| 20260902071601 | 66 | 184 | 5.0 | 13.0 | 0.00 | 0.00 | 0.00 | 57 | 1005.7 |
| 20260902071218 | 67 | 227 | 4.0 | 13.0 | 0.00 | 0.00 | 0.00 | 57 | 1005.7 |
| 20260902071155 | 67 | 203 | 4.0 | 13.0 | 0.00 | 0.00 | 0.00 | 57 | 1005.7 |
| 20260902071131 | 67 | 206 | 4.0 | 13.0 | 0.00 | 0.00 | 0.00 | 57 | 1005.7 |
| 20260902071111 | 67 | 141 | 4.0 | 13.0 | 0.00 | 0.00 | 0.00 | 56 | 1005.7 |
| 20260902071036 | 67 | 275 | 6.0 | 14.0 | 0.00 | 0.00 | 0.00 | 56 | 1005.7 |
| 20260902070744 | 67 | 294 | 4.0 | 14.0 | 0.00 | 0.00 | 0.00 | 56 | 1005.6 |
| 20260902070413 | 67 | 212 | 4.0 | 14.0 | 0.00 | 0.00 | 0.00 | 56 | 1005.7 |
| 20260902070312 | 67 | 200 | 4.0 | 14.0 | 0.00 | 0.00 | 0.00 | 56 | 1005.6 |
| 20260902070212 | 67 | 207 | 6.0 | 14.0 | 0.00 | 0.00 | 0.00 | 56 | 1005.5 |
| 20260902070111 | 67 | 275 | 7.0 | 14.0 | 0.00 | 0.00 | 0.00 | 56 | 1005.5 |
| 20260902070012 | 67 | 184 | 5.0 | 14.0 | 0.00 | 0.00 | 0.00 | 56 | 1005.6 |
| 20260902065912 | 67 | 224 | 3.0 | 11.0 | 0.00 | 0.00 | 0.00 | 55 | 1005.6 |
| 20260902065812 | 67 | 183 | 3.0 | 11.0 | 0.00 | 0.00 | 0.00 | 55 | 1005.5 |
| 20260902065748 | 67 | 221 | 4.0 | 15.0 | 0.00 | 0.00 | 0.00 | 55 | 1005.6 |
| 20260902065724 | 67 | 262 | 6.0 | 15.0 | 0.00 | 0.00 | 0.00 | 55 | 1005.5 |
| 20260902065703 | 67 | 279 | 6.0 | 15.0 | 0.00 | 0.00 | 0.00 | 55 | 1005.5 |
| 20260902065640 | 67 | 188 | 5.0 | 15.0 | 0.00 | 0.00 | 0.00 | 55 | 1005.5 |
| 20260902065606 | 67 | 255 | 5.0 | 15.0 | 0.00 | 0.00 | 0.00 | 55 | 1005.5 |
| 20260902065544 | 67 | 254 | 5.0 | 15.0 | 0.00 | 0.00 | 0.00 | 55 | 1005.6 |
| 20260902065524 | 67 | 185 | 5.0 | 15.0 | 0.00 | 0.00 | 0.00 | 55 | 1005.6 |
| 20260902065503 | 67 | 225 | 5.0 | 15.0 | 0.00 | 0.00 | 0.00 | 55 | 1005.5 |
| 20260902065443 | 67 | 238 | 7.0 | 15.0 | 0.00 | 0.00 | 0.00 | 55 | 1005.4 |
| 20260902065407 | 67 | 207 | 6.0 | 15.0 | 0.00 | 0.00 | 0.00 | 55 | 1005.5 |
| 20260902065115 | 67 | 169 | 5.0 | 13.0 | 0.00 | 0.00 | 0.00 | 55 | 1005.4 |
| 20260902064825 | 67 | 184 | 8.0 | 13.0 | 0.00 | 0.00 | 0.00 | 55 | 1005.4 |
| 20260902064751 | 67 | 240 | 6.0 | 13.0 | 0.00 | 0.00 | 0.00 | 55 | 1005.3 |
| 20260902064729 | 67 | 242 | 6.0 | 13.0 | 0.00 | 0.00 | 0.00 | 55 | 1005.3 |
| 20260902064709 | 67 | 203 | 6.0 | 13.0 | 0.00 | 0.00 | 0.00 | 55 | 1005.1 |
| 20260902064642 | 67 | 138 | 7.0 | 12.0 | 0.00 | 0.00 | 0.00 | 54 | 1005.3 |
| 20260902064340 | 67 | 182 | 5.0 | 12.0 | 0.00 | 0.00 | 0.00 | 54 | 1005.2 |
| 20260902064320 | 67 | 206 | 6.0 | 13.0 | 0.00 | 0.00 | 0.00 | 55 | 1005.2 |
| 20260902064030 | 67 | 210 | 5.0 | 13.0 | 0.00 | 0.00 | 0.00 | 54 | 1005.1 |
| 20260902064009 | 67 | 244 | 5.0 | 13.0 | 0.00 | 0.00 | 0.00 | 54 | 1005.0 |
| 20260902063933 | 67 | 219 | 5.0 | 13.0 | 0.00 | 0.00 | 0.00 | 54 | 1005.1 |
| 20260902063911 | 67 | 280 | 6.0 | 13.0 | 0.00 | 0.00 | 0.00 | 54 | 1005.0 |
| 20260902063851 | 67 | 128 | 6.0 | 13.0 | 0.00 | 0.00 | 0.00 | 54 | 1005.0 |
| 20260902063829 | 67 | 195 | 5.0 | 13.0 | 0.00 | 0.00 | 0.00 | 54 | 1004.9 |
| 20260902063527 | 67 | 213 | 6.0 | 13.0 | 0.00 | 0.00 | 0.00 | 54 | 1005.0 |
| 20260902063508 | 68 | 256 | 6.0 | 13.0 | 0.00 | 0.00 | 0.00 | 54 | 1004.9 |
| 20260902063445 | 68 | 196 | 6.0 | 13.0 | 0.00 | 0.00 | 0.00 | 54 | 1005.0 |
| 20260902063425 | 68 | 223 | 7.0 | 13.0 | 0.00 | 0.00 | 0.00 | 54 | 1004.9 |
| 20260902063404 | 68 | 207 | 6.0 | 13.0 | 0.00 | 0.00 | 0.00 | 54 | 1005.0 |
| 20260902063330 | 68 | 216 | 5.0 | 13.0 | 0.00 | 0.00 | 0.00 | 54 | 1005.0 |
| 20260902063306 | 68 | 178 | 6.0 | 12.0 | 0.00 | 0.00 | 0.00 | 53 | 1005.0 |
| 20260902063246 | 68 | 246 | 4.0 | 12.0 | 0.00 | 0.00 | 0.00 | 53 | 1005.0 |
| 20260902062216 | 68 | 237 | 6.0 | 12.0 | 0.00 | 0.00 | 0.00 | 53 | 1005.1 |
| 20260902062157 | 68 | 253 | 4.0 | 12.0 | 0.00 | 0.00 | 0.00 | 53 | 1005.2 |
| 20260902061855 | 68 | 186 | 4.0 | 20.0 | 0.00 | 0.00 | 0.00 | 53 | 1005.0 |
| 20260902061833 | 68 | 188 | 5.0 | 20.0 | 0.00 | 0.00 | 0.00 | 53 | 1005.0 |
| 20260902061314 | 68 | 164 | 5.0 | 20.0 | 0.00 | 0.00 | 0.00 | 53 | 1004.9 |
| 20260902060742 | 68 | 298 | 6.0 | 20.0 | 0.00 | 0.00 | 0.00 | 53 | 1005.0 |
| 20260902060721 | 68 | 219 | 7.0 | 20.0 | 0.00 | 0.00 | 0.00 | 52 | 1004.9 |
| 20260902060658 | 68 | 239 | 7.0 | 14.0 | 0.00 | 0.00 | 0.00 | 52 | 1005.0 |
| 20260902060045 | 68 | 136 | 6.0 | 14.0 | 0.00 | 0.00 | 0.00 | 52 | 1004.8 |
| 20260902055944 | 68 | 249 | 6.0 | 14.0 | 0.00 | 0.00 | 0.00 | 52 | 1004.7 |
| 20260902055844 | 69 | 216 | 6.0 | 14.0 | 0.00 | 0.00 | 0.00 | 52 | 1004.8 |
| 20260902055744 | 69 | 223 | 6.0 | 12.0 | 0.00 | 0.00 | 0.00 | 52 | 1004.8 |
| 20260902055658 | 69 | 186 | 6.0 | 15.0 | 0.00 | 0.00 | 0.00 | 52 | 1004.9 |
| 20260902055633 | 69 | 244 | 4.0 | 15.0 | 0.00 | 0.00 | 0.00 | 52 | 1004.9 |
| 20260902055613 | 69 | 235 | 4.0 | 15.0 | 0.00 | 0.00 | 0.00 | 52 | 1004.8 |
| 20260902055240 | 69 | 165 | 4.0 | 15.0 | 0.00 | 0.00 | 0.00 | 52 | 1004.8 |
| 20260902055139 | 69 | 174 | 3.0 | 15.0 | 0.00 | 0.00 | 0.00 | 52 | 1004.8 |
| 20260902055039 | 69 | 217 | 5.0 | 15.0 | 0.00 | 0.00 | 0.00 | 52 | 1004.8 |
| 20260902054938 | 69 | 257 | 8.0 | 15.0 | 0.00 | 0.00 | 0.00 | 52 | 1004.8 |
| 20260902054838 | 69 | 227 | 7.0 | 15.0 | 0.00 | 0.00 | 0.00 | 52 | 1004.8 |
| 20260902054738 | 69 | 188 | 7.0 | 15.0 | 0.00 | 0.00 | 0.00 | 52 | 1004.7 |
| 20260902054637 | 69 | 237 | 6.0 | 12.0 | 0.00 | 0.00 | 0.00 | 52 | 1004.8 |
| 20260902054536 | 69 | 238 | 5.0 | 12.0 | 0.00 | 0.00 | 0.00 | 52 | 1004.7 |
| 20260902054449 | 69 | 264 | 5.0 | 12.0 | 0.00 | 0.00 | 0.00 | 53 | 1004.7 |
| 20260902054427 | 69 | 243 | 6.0 | 12.0 | 0.00 | 0.00 | 0.00 | 52 | 1004.7 |
| 20260902054352 | 69 | 227 | 6.0 | 12.0 | 0.00 | 0.00 | 0.00 | 53 | 1004.7 |
| 20260902054330 | 69 | 197 | 5.0 | 12.0 | 0.00 | 0.00 | 0.00 | 52 | 1004.6 |
| 20260902054036 | 69 | 213 | 6.0 | 11.0 | 0.00 | 0.00 | 0.00 | 52 | 1004.7 |
| 20260902054015 | 69 | 219 | 6.0 | 12.0 | 0.00 | 0.00 | 0.00 | 52 | 1004.6 |
| 20260902053631 | 69 | 164 | 5.0 | 19.0 | 0.00 | 0.00 | 0.00 | 53 | 1004.6 |
| 20260902053530 | 69 | 184 | 6.0 | 19.0 | 0.00 | 0.00 | 0.00 | 53 | 1004.6 |
| 20260902053430 | 69 | 207 | 6.0 | 19.0 | 0.00 | 0.00 | 0.00 | 53 | 1004.6 |
| 20260902053359 | 69 | 211 | 4.0 | 19.0 | 0.00 | 0.00 | 0.00 | 53 | 1004.4 |
| 20260902053327 | 69 | 202 | 5.0 | 19.0 | 0.00 | 0.00 | 0.00 | 53 | 1004.5 |
| 20260902053303 | 69 | 248 | 7.0 | 19.0 | 0.00 | 0.00 | 0.00 | 53 | 1004.6 |
| 20260902053243 | 69 | 217 | 7.0 | 19.0 | 0.00 | 0.00 | 0.00 | 53 | 1004.5 |
| 20260902053222 | 69 | 190 | 6.0 | 19.0 | 0.00 | 0.00 | 0.00 | 53 | 1004.4 |
| 20260902052917 | 69 | 178 | 5.0 | 19.0 | 0.00 | 0.00 | 0.00 | 53 | 1004.6 |
| 20260902052856 | 69 | 163 | 6.0 | 12.0 | 0.00 | 0.00 | 0.00 | 53 | 1004.5 |
| 20260902052833 | 69 | 150 | 6.0 | 12.0 | 0.00 | 0.00 | 0.00 | 53 | 1004.4 |
| 20260902052814 | 69 | 215 | 6.0 | 12.0 | 0.00 | 0.00 | 0.00 | 53 | 1004.6 |
| 20260902052509 | 69 | 226 | 5.0 | 18.0 | 0.00 | 0.00 | 0.00 | 53 | 1004.4 |
| 20260902052446 | 69 | 202 | 5.0 | 18.0 | 0.00 | 0.00 | 0.00 | 53 | 1004.4 |
| 20260902052426 | 69 | 247 | 4.0 | 18.0 | 0.00 | 0.00 | 0.00 | 53 | 1004.2 |
| 20260902052138 | 69 | 227 | 5.0 | 18.0 | 0.00 | 0.00 | 0.00 | 53 | 1004.4 |
| 20260902051524 | 70 | 196 | 5.0 | 18.0 | 0.00 | 0.00 | 0.00 | 53 | 1004.4 |
| 20260902051423 | 70 | 168 | 7.0 | 18.0 | 0.00 | 0.00 | 0.00 | 53 | 1004.4 |
| 20260902051323 | 70 | 247 | 8.0 | 18.0 | 0.00 | 0.00 | 0.00 | 52 | 1004.5 |
| 20260902051242 | 70 | 217 | 7.0 | 12.0 | 0.00 | 0.00 | 0.00 | 52 | 1004.4 |
| 20260902051220 | 70 | 215 | 5.0 | 12.0 | 0.00 | 0.00 | 0.00 | 52 | 1004.2 |
| 20260902051158 | 70 | 187 | 4.0 | 15.0 | 0.00 | 0.00 | 0.00 | 52 | 1004.3 |
| 20260902051137 | 70 | 217 | 3.0 | 15.0 | 0.00 | 0.00 | 0.00 | 52 | 1004.3 |
| 20260902051117 | 70 | 209 | 4.0 | 15.0 | 0.00 | 0.00 | 0.00 | 52 | 1004.2 |
| 20260902050812 | 70 | 200 | 4.0 | 15.0 | 0.00 | 0.00 | 0.00 | 52 | 1004.3 |
| 20260902050749 | 70 | 264 | 6.0 | 15.0 | 0.00 | 0.00 | 0.00 | 52 | 1004.3 |
| 20260902050729 | 70 | 202 | 6.0 | 15.0 | 0.00 | 0.00 | 0.00 | 51 | 1004.3 |
| 20260902050706 | 70 | 170 | 6.0 | 15.0 | 0.00 | 0.00 | 0.00 | 51 | 1004.2 |
| 20260902050632 | 70 | 267 | 6.0 | 15.0 | 0.00 | 0.00 | 0.00 | 51 | 1004.3 |
| 20260902050109 | 71 | 190 | 5.0 | 10.0 | 0.00 | 0.00 | 0.00 | 51 | 1004.2 |
| 20260902050048 | 71 | 192 | 6.0 | 14.0 | 0.00 | 0.00 | 0.00 | 51 | 1004.2 |
| 20260902045745 | 71 | 207 | 5.0 | 14.0 | 0.00 | 0.00 | 0.00 | 51 | 1004.2 |
| 20260902045412 | 71 | 229 | 4.0 | 14.0 | 0.00 | 0.00 | 0.00 | 51 | 1004.2 |
| 20260902045336 | 71 | 258 | 5.0 | 14.0 | 0.00 | 0.00 | 0.00 | 50 | 1004.2 |
| 20260902045305 | 71 | 161 | 3.0 | 14.0 | 0.00 | 0.00 | 0.00 | 50 | 1004.2 |
| 20260902045240 | 71 | 267 | 4.0 | 14.0 | 0.00 | 0.00 | 0.00 | 50 | 1004.2 |
| 20260902044909 | 71 | 197 | 5.0 | 14.0 | 0.00 | 0.00 | 0.00 | 50 | 1004.3 |
| 20260902044837 | 71 | 153 | 5.0 | 14.0 | 0.00 | 0.00 | 0.00 | 50 | 1004.1 |
| 20260902044800 | 71 | 205 | 5.0 | 14.0 | 0.00 | 0.00 | 0.00 | 50 | 1004.2 |
| 20260902044739 | 71 | 181 | 5.0 | 14.0 | 0.00 | 0.00 | 0.00 | 50 | 1004.0 |
| 20260902044406 | 71 | 153 | 3.0 | 14.0 | 0.00 | 0.00 | 0.00 | 50 | 1004.0 |
| 20260902044306 | 71 | 102 | 4.0 | 14.0 | 0.00 | 0.00 | 0.00 | 50 | 1004.0 |
| 20260902044205 | 71 | 239 | 5.0 | 14.0 | 0.00 | 0.00 | 0.00 | 50 | 1004.0 |
| 20260902044101 | 71 | 196 | 5.0 | 14.0 | 0.00 | 0.00 | 0.00 | 49 | 1004.0 |
| 20260902043901 | 71 | 177 | 4.0 | 11.0 | 0.00 | 0.00 | 0.00 | 49 | 1004.0 |
| 20260902043801 | 71 | 182 | 4.0 | 10.0 | 0.00 | 0.00 | 0.00 | 49 | 1004.0 |
| 20260902043702 | 72 | 230 | 5.0 | 10.0 | 0.00 | 0.00 | 0.00 | 49 | 1003.9 |
| 20260902043602 | 72 | 182 | 5.0 | 10.0 | 0.00 | 0.00 | 0.00 | 49 | 1004.0 |
| 20260902043501 | 72 | 200 | 5.0 | 10.0 | 0.00 | 0.00 | 0.00 | 49 | 1003.9 |
| 20260902043400 | 72 | 160 | 5.0 | 11.0 | 0.00 | 0.00 | 0.00 | 49 | 1003.9 |
| 20260902043300 | 72 | 186 | 4.0 | 11.0 | 0.00 | 0.00 | 0.00 | 49 | 1003.9 |
| 20260902043159 | 72 | 219 | 5.0 | 11.0 | 0.00 | 0.00 | 0.00 | 49 | 1003.8 |
| 20260902043058 | 72 | 288 | 5.0 | 11.0 | 0.00 | 0.00 | 0.00 | 48 | 1003.8 |
| 20260902042958 | 72 | 191 | 4.0 | 11.0 | 0.00 | 0.00 | 0.00 | 48 | 1004.0 |
| 20260902042857 | 72 | 168 | 3.0 | 11.0 | 0.00 | 0.00 | 0.00 | 48 | 1003.9 |
| 20260902042757 | 72 | 179 | 3.0 | 11.0 | 0.00 | 0.00 | 0.00 | 48 | 1003.9 |
| 20260902042656 | 72 | 240 | 5.0 | 11.0 | 0.00 | 0.00 | 0.00 | 48 | 1003.9 |
| 20260902042555 | 72 | 194 | 6.0 | 11.0 | 0.00 | 0.00 | 0.00 | 48 | 1003.8 |
| 20260902042455 | 72 | 172 | 4.0 | 11.0 | 0.00 | 0.00 | 0.00 | 48 | 1003.9 |
| 20260902042354 | 73 | 177 | 4.0 | 11.0 | 0.00 | 0.00 | 0.00 | 48 | 1003.8 |
| 20260902042253 | 73 | 259 | 4.0 | 11.0 | 0.00 | 0.00 | 0.00 | 48 | 1003.8 |
| 20260902042153 | 73 | 268 | 5.0 | 11.0 | 0.00 | 0.00 | 0.00 | 47 | 1003.7 |
| 20260902042052 | 73 | 231 | 4.0 | 11.0 | 0.00 | 0.00 | 0.00 | 47 | 1003.7 |
| 20260902041954 | 73 | 214 | 5.0 | 11.0 | 0.00 | 0.00 | 0.00 | 47 | 1003.8 |
| 20260902041854 | 73 | 215 | 5.0 | 11.0 | 0.00 | 0.00 | 0.00 | 47 | 1003.7 |
| 20260902041751 | 73 | 237 | 4.0 | 11.0 | 0.00 | 0.00 | 0.00 | 47 | 1003.7 |
| 20260902041650 | 73 | 190 | 3.0 | 11.0 | 0.00 | 0.00 | 0.00 | 47 | 1003.7 |
| 20260902041550 | 73 | 161 | 5.0 | 11.0 | 0.00 | 0.00 | 0.00 | 47 | 1003.8 |
| 20260902041525 | 73 | 254 | 6.0 | 11.0 | 0.00 | 0.00 | 0.00 | 47 | 1003.7 |
| 20260902041504 | 73 | 180 | 6.0 | 11.0 | 0.00 | 0.00 | 0.00 | 46 | 1003.7 |
| 20260902041442 | 73 | 223 | 5.0 | 11.0 | 0.00 | 0.00 | 0.00 | 46 | 1003.8 |
| 20260902041135 | 73 | 279 | 4.0 | 11.0 | 0.00 | 0.00 | 0.00 | 46 | 1003.6 |
| 20260902041114 | 73 | 160 | 5.0 | 11.0 | 0.00 | 0.00 | 0.00 | 46 | 1003.6 |
| 20260902040743 | 74 | 136 | 5.0 | 12.0 | 0.00 | 0.00 | 0.00 | 45 | 1003.4 |
| 20260902040643 | 74 | 208 | 6.0 | 12.0 | 0.00 | 0.00 | 0.00 | 45 | 1003.4 |
| 20260902040542 | 74 | 158 | 5.0 | 12.0 | 0.00 | 0.00 | 0.00 | 45 | 1003.4 |
| 20260902040509 | 74 | 225 | 5.0 | 12.0 | 0.00 | 0.00 | 0.00 | 45 | 1003.4 |
| 20260902040447 | 74 | 171 | 4.0 | 12.0 | 0.00 | 0.00 | 0.00 | 45 | 1003.4 |
| 20260902040425 | 74 | 236 | 5.0 | 12.0 | 0.00 | 0.00 | 0.00 | 45 | 1003.3 |
| 20260902040351 | 74 | 202 | 6.0 | 12.0 | 0.00 | 0.00 | 0.00 | 45 | 1003.4 |
| 20260902040054 | 74 | 201 | 4.0 | 12.0 | 0.00 | 0.00 | 0.00 | 45 | 1003.6 |
| 20260902040033 | 74 | 194 | 4.0 | 11.0 | 0.00 | 0.00 | 0.00 | 45 | 1003.6 |
| 20260902040013 | 74 | 246 | 5.0 | 10.0 | 0.00 | 0.00 | 0.00 | 45 | 1003.4 |
| 20260902035707 | 74 | 225 | 6.0 | 10.0 | 0.00 | 0.00 | 0.00 | 44 | 1003.6 |
| 20260902035335 | 74 | 185 | 4.0 | 13.0 | 0.00 | 0.00 | 0.00 | 44 | 1003.6 |
| 20260902035235 | 74 | 315 | 4.0 | 13.0 | 0.00 | 0.00 | 0.00 | 44 | 1003.6 |
| 20260902035134 | 74 | 207 | 3.0 | 13.0 | 0.00 | 0.00 | 0.00 | 44 | 1003.4 |
| 20260902035033 | 74 | 219 | 4.0 | 13.0 | 0.00 | 0.00 | 0.00 | 44 | 1003.4 |
| 20260902034933 | 74 | 207 | 4.0 | 13.0 | 0.00 | 0.00 | 0.00 | 43 | 1003.3 |
| 20260902034845 | 74 | 163 | 3.0 | 13.0 | 0.00 | 0.00 | 0.00 | 43 | 1003.3 |
| 20260902034825 | 74 | 199 | 5.0 | 13.0 | 0.00 | 0.00 | 0.00 | 43 | 1003.3 |
| 20260902034748 | 74 | 180 | 5.0 | 13.0 | 0.00 | 0.00 | 0.00 | 43 | 1003.3 |
| 20260902034728 | 74 | 146 | 4.0 | 13.0 | 0.00 | 0.00 | 0.00 | 42 | 1003.4 |
| 20260902034706 | 74 | 273 | 5.0 | 18.0 | 0.00 | 0.00 | 0.00 | 42 | 1003.3 |
| 20260902034644 | 74 | 163 | 4.0 | 18.0 | 0.00 | 0.00 | 0.00 | 42 | 1003.3 |
| 20260902034029 | 75 | 188 | 4.0 | 18.0 | 0.00 | 0.00 | 0.00 | 41 | 1003.3 |
| 20260902033930 | 75 | 231 | 5.0 | 18.0 | 0.00 | 0.00 | 0.00 | 41 | 1003.3 |
| 20260902033901 | 75 | 186 | 7.0 | 18.0 | 0.00 | 0.00 | 0.00 | 41 | 1003.3 |
| 20260902033840 | 75 | 232 | 7.0 | 18.0 | 0.00 | 0.00 | 0.00 | 40 | 1003.3 |
| 20260902033803 | 75 | 158 | 8.0 | 18.0 | 0.00 | 0.00 | 0.00 | 40 | 1003.3 |
| 20260902033741 | 75 | 227 | 10.0 | 18.0 | 0.00 | 0.00 | 0.00 | 40 | 1003.3 |
| 20260902033721 | 75 | 159 | 7.0 | 16.0 | 0.00 | 0.00 | 0.00 | 39 | 1003.2 |
| 20260902033700 | 75 | 196 | 7.0 | 14.0 | 0.00 | 0.00 | 0.00 | 39 | 1003.3 |
| 20260902033356 | 75 | 153 | 5.0 | 13.0 | 0.00 | 0.00 | 0.00 | 39 | 1003.3 |
| 20260902033336 | 75 | 178 | 4.0 | 13.0 | 0.00 | 0.00 | 0.00 | 39 | 1003.2 |
| 20260902033314 | 76 | 179 | 6.0 | 13.0 | 0.00 | 0.00 | 0.00 | 39 | 1003.2 |
| 20260902033026 | 76 | 161 | 6.0 | 13.0 | 0.00 | 0.00 | 0.00 | 39 | 1003.2 |
| 20260902032952 | 76 | 140 | 6.0 | 13.0 | 0.00 | 0.00 | 0.00 | 38 | 1003.2 |
| 20260902032927 | 76 | 207 | 5.0 | 12.0 | 0.00 | 0.00 | 0.00 | 38 | 1003.2 |
| 20260902032906 | 76 | 199 | 4.0 | 12.0 | 0.00 | 0.00 | 0.00 | 38 | 1003.3 |
| 20260902032844 | 76 | 161 | 4.0 | 12.0 | 0.00 | 0.00 | 0.00 | 38 | 1003.2 |
| 20260902032824 | 76 | 210 | 5.0 | 16.0 | 0.00 | 0.00 | 0.00 | 38 | 1003.2 |
| 20260902032250 | 76 | 259 | 5.0 | 16.0 | 0.00 | 0.00 | 0.00 | 38 | 1003.2 |
| 20260902031715 | 76 | 246 | 6.0 | 17.0 | 0.00 | 0.00 | 0.00 | 38 | 1003.1 |
| 20260902031649 | 76 | 225 | 6.0 | 17.0 | 0.00 | 0.00 | 0.00 | 37 | 1003.2 |
| 20260902031318 | 77 | 146 | 6.0 | 17.0 | 0.00 | 0.00 | 0.00 | 37 | 1003.1 |
| 20260902031218 | 77 | 151 | 6.0 | 17.0 | 0.00 | 0.00 | 0.00 | 37 | 1003.1 |
| 20260902031116 | 77 | 157 | 9.0 | 17.0 | 0.00 | 0.00 | 0.00 | 37 | 1003.1 |
| 20260902031017 | 77 | 159 | 9.0 | 17.0 | 0.00 | 0.00 | 0.00 | 37 | 1003.0 |
| 20260902030916 | 77 | 183 | 9.0 | 17.0 | 0.00 | 0.00 | 0.00 | 37 | 1003.0 |
| 20260902030816 | 77 | 178 | 8.0 | 16.0 | 0.00 | 0.00 | 0.00 | 37 | 1003.0 |
| 20260902030715 | 77 | 163 | 6.0 | 16.0 | 0.00 | 0.00 | 0.00 | 37 | 1003.0 |
| 20260902030615 | 77 | 141 | 6.0 | 16.0 | 0.00 | 0.00 | 0.00 | 37 | 1002.9 |
| 20260902030515 | 77 | 140 | 7.0 | 20.0 | 0.00 | 0.00 | 0.00 | 37 | 1002.9 |
| 20260902030414 | 77 | 158 | 8.0 | 20.0 | 0.00 | 0.00 | 0.00 | 37 | 1002.8 |
| 20260902030313 | 78 | 175 | 8.0 | 20.0 | 0.00 | 0.00 | 0.00 | 36 | 1002.8 |
| 20260902030213 | 78 | 169 | 8.0 | 20.0 | 0.00 | 0.00 | 0.00 | 37 | 1002.8 |
| 20260902030113 | 78 | 174 | 10.0 | 20.0 | 0.00 | 0.00 | 0.00 | 36 | 1002.8 |
| 20260902030012 | 78 | 189 | 10.0 | 20.0 | 0.00 | 0.00 | 0.00 | 36 | 1002.7 |
| 20260902025909 | 78 | 137 | 7.0 | 20.0 | 0.00 | 0.00 | 0.00 | 36 | 1002.8 |
| 20260902025809 | 78 | 178 | 8.0 | 20.0 | 0.00 | 0.00 | 0.00 | 36 | 1002.8 |
| 20260902025709 | 78 | 171 | 10.0 | 20.0 | 0.00 | 0.00 | 0.00 | 36 | 1002.8 |
| 20260902025610 | 78 | 157 | 9.0 | 17.0 | 0.00 | 0.00 | 0.00 | 36 | 1002.8 |
| 20260902025539 | 78 | 150 | 6.0 | 16.0 | 0.00 | 0.00 | 0.00 | 36 | 1002.8 |
| 20260902025516 | 78 | 115 | 7.0 | 16.0 | 0.00 | 0.00 | 0.00 | 36 | 1002.8 |
| 20260902025455 | 78 | 200 | 9.0 | 16.0 | 0.00 | 0.00 | 0.00 | 36 | 1002.9 |
| 20260902025433 | 78 | 156 | 8.0 | 16.0 | 0.00 | 0.00 | 0.00 | 36 | 1002.9 |
| 20260902025357 | 78 | 150 | 8.0 | 14.0 | 0.00 | 0.00 | 0.00 | 36 | 1002.9 |
| 20260902025335 | 78 | 167 | 8.0 | 14.0 | 0.00 | 0.00 | 0.00 | 36 | 1002.8 |
| 20260902025314 | 78 | 184 | 8.0 | 14.0 | 0.00 | 0.00 | 0.00 | 36 | 1002.9 |
| 20260902025022 | 79 | 166 | 6.0 | 14.0 | 0.00 | 0.00 | 0.00 | 36 | 1002.8 |
| 20260902024947 | 79 | 182 | 8.0 | 14.0 | 0.00 | 0.00 | 0.00 | 36 | 1002.8 |
| 20260902024655 | 79 | 199 | 7.0 | 12.0 | 0.00 | 0.00 | 0.00 | 36 | 1002.8 |
| 20260902024055 | 79 | 171 | 6.0 | 12.0 | 0.00 | 0.00 | 0.00 | 35 | 1002.7 |
| 20260902023955 | 79 | 144 | 6.0 | 12.0 | 0.00 | 0.00 | 0.00 | 36 | 1002.7 |
| 20260902023854 | 79 | 192 | 5.0 | 12.0 | 0.00 | 0.00 | 0.00 | 36 | 1002.8 |
| 20260902023753 | 79 | 145 | 4.0 | 8.0 | 0.00 | 0.00 | 0.00 | 36 | 1002.8 |
| 20260902023651 | 79 | 150 | 2.0 | 8.0 | 0.00 | 0.00 | 0.00 | 36 | 1002.8 |
| 20260902023553 | 79 | 177 | 2.0 | 4.0 | 0.00 | 0.00 | 0.00 | 37 | 1002.8 |
| 20260902023450 | 79 | 157 | 2.0 | 4.0 | 0.00 | 0.00 | 0.00 | 37 | 1002.7 |
| 20260902023338 | 79 | 153 | 3.0 | 4.0 | 0.00 | 0.00 | 0.00 | 37 | 1002.7 |
| 20260902023238 | 79 | 153 | 2.0 | 5.0 | 0.00 | 0.00 | 0.00 | 37 | 1002.7 |
| 20260902023145 | 79 | 142 | 2.0 | 5.0 | 0.00 | 0.00 | 0.00 | 37 | 1002.7 |
| 20260902023049 | 80 | 127 | 2.0 | 6.0 | 0.00 | 0.00 | 0.00 | 37 | 1002.7 |
| 20260902023028 | 80 | 121 | 2.0 | 7.0 | 0.00 | 0.00 | 0.00 | 37 | 1002.7 |
| 20260902023006 | 80 | 120 | 1.0 | 7.0 | 0.00 | 0.00 | 0.00 | 37 | 1002.7 |
| 20260902022641 | 80 | 76 | 2.0 | 7.0 | 0.00 | 0.00 | 0.00 | 37 | 1002.7 |
| 20260902022535 | 80 | 181 | 2.0 | 7.0 | 0.00 | 0.00 | 0.00 | 38 | 1002.8 |
| 20260902022435 | 80 | 142 | 3.0 | 7.0 | 0.00 | 0.00 | 0.00 | 37 | 1002.7 |
| 20260902022334 | 79 | 134 | 2.0 | 7.0 | 0.00 | 0.00 | 0.00 | 37 | 1002.8 |
| 20260902022233 | 79 | 228 | 3.0 | 7.0 | 0.00 | 0.00 | 0.00 | 38 | 1002.8 |
| 20260902022148 | 79 | 182 | 4.0 | 7.0 | 0.00 | 0.00 | 0.00 | 38 | 1002.7 |
| 20260902022111 | 79 | 182 | 3.0 | 7.0 | 0.00 | 0.00 | 0.00 | 38 | 1002.8 |
| 20260902022049 | 79 | 180 | 2.0 | 6.0 | 0.00 | 0.00 | 0.00 | 39 | 1002.8 |
| 20260902022027 | 79 | 155 | 3.0 | 5.0 | 0.00 | 0.00 | 0.00 | 39 | 1002.8 |
| 20260902022005 | 79 | 154 | 3.0 | 5.0 | 0.00 | 0.00 | 0.00 | 40 | 1002.8 |
| 20260902021701 | 79 | 157 | 2.0 | 5.0 | 0.00 | 0.00 | 0.00 | 42 | 1002.8 |
| 20260902021350 | 79 | 150 | 1.0 | 4.0 | 0.00 | 0.00 | 0.00 | 47 | 1002.8 |
| 20260902021328 | 79 | 117 | 1.0 | 2.0 | 0.00 | 0.00 | 0.00 | 47 | 1002.8 |
| 20260902021308 | 79 | 150 | 1.0 | 2.0 | 0.00 | 0.00 | 0.00 | 47 | 1002.8 |
| 20260902021233 | 79 | 159 | 1.0 | 2.0 | 0.00 | 0.00 | 0.00 | 46 | 1002.9 |
| 20260902021214 | 79 | 133 | 1.0 | 2.0 | 0.00 | 0.00 | 0.00 | 46 | 1002.9 |
| 20260902021152 | 79 | 113 | 0.0 | 2.0 | 0.00 | 0.00 | 0.00 | 46 | 1002.8 |
| 20260902021132 | 80 | 111 | 0.0 | 2.0 | 0.00 | 0.00 | 0.00 | 46 | 1002.8 |
| 20260902020600 | 80 | 105 | 1.0 | 2.0 | 0.00 | 0.00 | 0.00 | 46 | 1002.8 |
| 20260902020228 | 80 | 106 | 0.0 | 2.0 | 0.00 | 0.00 | 0.00 | 45 | 1002.9 |
| 20260902020205 | 80 | 107 | 1.0 | 2.0 | 0.00 | 0.00 | 0.00 | 45 | 1002.8 |
| 20260902020129 | 80 | 107 | 1.0 | 2.0 | 0.00 | 0.00 | 0.00 | 45 | 1002.8 |
| 20260902020110 | 80 | 111 | 1.0 | 2.0 | 0.00 | 0.00 | 0.00 | 45 | 1002.9 |
| 20260902020049 | 80 | 108 | 0.0 | 1.0 | 0.00 | 0.00 | 0.00 | 45 | 1002.8 |
| 20260902020029 | 80 | 107 | 1.0 | 1.0 | 0.00 | 0.00 | 0.00 | 45 | 1002.8 |
| 20260902020008 | 80 | 107 | 0.0 | 4.0 | 0.00 | 0.00 | 0.00 | 44 | 1002.9 |
| 20260902015933 | 80 | 86 | 0.0 | 4.0 | 0.00 | 0.00 | 0.00 | 45 | 1002.9 |
| 20260902015914 | 80 | 84 | 0.0 | 4.0 | 0.00 | 0.00 | 0.00 | 44 | 1002.9 |
| 20260902015625 | 80 | 84 | 0.0 | 4.0 | 0.00 | 0.00 | 0.00 | 44 | 1002.9 |
| 20260902015100 | 80 | 84 | 1.0 | 4.0 | 0.00 | 0.00 | 0.00 | 44 | 1002.9 |
| 20260902014731 | 80 | 81 | 2.0 | 4.0 | 0.00 | 0.00 | 0.00 | 43 | 1002.9 |
| 20260902014628 | 80 | 84 | 1.0 | 2.0 | 0.00 | 0.00 | 0.00 | 44 | 1002.9 |
| 20260902014530 | 80 | 63 | 1.0 | 3.0 | 0.00 | 0.00 | 0.00 | 44 | 1002.9 |
| 20260902014428 | 81 | 83 | 1.0 | 3.0 | 0.00 | 0.00 | 0.00 | 44 | 1002.9 |
| 20260902014334 | 81 | 104 | 0.0 | 3.0 | 0.00 | 0.00 | 0.00 | 44 | 1002.8 |
| 20260902014230 | 81 | 104 | 1.0 | 3.0 | 0.00 | 0.00 | 0.00 | 44 | 1002.8 |
| 20260902014131 | 81 | 104 | 1.0 | 5.0 | 0.00 | 0.00 | 0.00 | 44 | 1002.9 |
| 20260902014029 | 81 | 96 | 1.0 | 5.0 | 0.00 | 0.00 | 0.00 | 44 | 1002.8 |
| 20260902013930 | 81 | 111 | 1.0 | 5.0 | 0.00 | 0.00 | 0.00 | 44 | 1002.8 |
| 20260902013827 | 81 | 70 | 1.0 | 5.0 | 0.00 | 0.00 | 0.00 | 44 | 1002.8 |
| 20260902013729 | 81 | 86 | 2.0 | 5.0 | 0.00 | 0.00 | 0.00 | 43 | 1002.8 |
| 20260902013622 | 81 | 79 | 2.0 | 5.0 | 0.00 | 0.00 | 0.00 | 43 | 1002.9 |
| 20260902013522 | 81 | 73 | 2.0 | 5.0 | 0.00 | 0.00 | 0.00 | 43 | 1002.9 |
| 20260902013422 | 81 | 81 | 2.0 | 5.0 | 0.00 | 0.00 | 0.00 | 42 | 1002.9 |
| 20260902013321 | 81 | 59 | 2.0 | 5.0 | 0.00 | 0.00 | 0.00 | 42 | 1002.9 |
| 20260902013248 | 81 | 120 | 1.0 | 5.0 | 0.00 | 0.00 | 0.00 | 43 | 1002.9 |
| 20260902013225 | 81 | 87 | 1.0 | 3.0 | 0.00 | 0.00 | 0.00 | 43 | 1002.9 |
| 20260902013149 | 81 | 70 | 1.0 | 3.0 | 0.00 | 0.00 | 0.00 | 43 | 1002.9 |
| 20260902013129 | 81 | 96 | 1.0 | 3.0 | 0.00 | 0.00 | 0.00 | 42 | 1002.9 |
| 20260902013107 | 81 | 132 | 1.0 | 3.0 | 0.00 | 0.00 | 0.00 | 42 | 1003.0 |
| 20260902013046 | 81 | 47 | 1.0 | 3.0 | 0.00 | 0.00 | 0.00 | 42 | 1003.0 |
| 20260902012746 | 81 | 87 | 2.0 | 3.0 | 0.00 | 0.00 | 0.00 | 42 | 1003.0 |
| 20260902012722 | 81 | 57 | 2.0 | 3.0 | 0.00 | 0.00 | 0.00 | 42 | 1003.0 |
| 20260902012433 | 82 | 92 | 1.0 | 3.0 | 0.00 | 0.00 | 0.00 | 42 | 1003.0 |
| 20260902012412 | 82 | 82 | 1.0 | 3.0 | 0.00 | 0.00 | 0.00 | 42 | 1003.0 |
| 20260902011802 | 82 | 84 | 1.0 | 3.0 | 0.00 | 0.00 | 0.00 | 41 | 1003.0 |
| 20260902011702 | 82 | 92 | 1.0 | 3.0 | 0.00 | 0.00 | 0.00 | 41 | 1003.0 |
| 20260902011609 | 82 | 98 | 2.0 | 3.0 | 0.00 | 0.00 | 0.00 | 41 | 1003.0 |
| 20260902011503 | 82 | 110 | 2.0 | 3.0 | 0.00 | 0.00 | 0.00 | 41 | 1003.0 |
| 20260902011440 | 82 | 92 | 2.0 | 3.0 | 0.00 | 0.00 | 0.00 | 41 | 1003.0 |
| 20260902011418 | 82 | 73 | 1.0 | 3.0 | 0.00 | 0.00 | 0.00 | 41 | 1003.0 |
| 20260902011355 | 82 | 96 | 1.0 | 4.0 | 0.00 | 0.00 | 0.00 | 41 | 1003.0 |
| 20260902011335 | 82 | 84 | 2.0 | 4.0 | 0.00 | 0.00 | 0.00 | 41 | 1003.0 |
| 20260902011032 | 82 | 103 | 1.0 | 4.0 | 0.00 | 0.00 | 0.00 | 40 | 1003.0 |
| 20260902010702 | 82 | 86 | 2.0 | 4.0 | 0.00 | 0.00 | 0.00 | 40 | 1003.1 |
| 20260902010607 | 82 | 90 | 1.0 | 4.0 | 0.00 | 0.00 | 0.00 | 40 | 1003.1 |
| 20260902010504 | 82 | 85 | 2.0 | 4.0 | 0.00 | 0.00 | 0.00 | 40 | 1003.1 |
| 20260902010403 | 82 | 71 | 2.0 | 4.0 | 0.00 | 0.00 | 0.00 | 40 | 1003.1 |
| 20260902010302 | 82 | 94 | 2.0 | 4.0 | 0.00 | 0.00 | 0.00 | 40 | 1003.1 |
| 20260902010201 | 82 | 109 | 2.0 | 4.0 | 0.00 | 0.00 | 0.00 | 40 | 1003.1 |
| 20260902010105 | 82 | 160 | 2.0 | 4.0 | 0.00 | 0.00 | 0.00 | 40 | 1003.1 |
| 20260902010001 | 82 | 76 | 1.0 | 4.0 | 0.00 | 0.00 | 0.00 | 40 | 1003.1 |
| 20260902005902 | 82 | 77 | 1.0 | 4.0 | 0.00 | 0.00 | 0.00 | 40 | 1003.1 |
| 20260902005801 | 82 | 100 | 1.0 | 4.0 | 0.00 | 0.00 | 0.00 | 40 | 1003.0 |
| 20260902005702 | 82 | 142 | 2.0 | 4.0 | 0.00 | 0.00 | 0.00 | 40 | 1003.0 |
| 20260902005603 | 82 | 92 | 1.0 | 4.0 | 0.00 | 0.00 | 0.00 | 40 | 1003.1 |
| 20260902005515 | 82 | 132 | 1.0 | 4.0 | 0.00 | 0.00 | 0.00 | 39 | 1003.0 |
| 20260902005453 | 82 | 163 | 1.0 | 4.0 | 0.00 | 0.00 | 0.00 | 39 | 1003.0 |
| 20260902005433 | 82 | 67 | 1.0 | 4.0 | 0.00 | 0.00 | 0.00 | 40 | 1003.0 |
| 20260902005102 | 82 | 111 | 2.0 | 4.0 | 0.00 | 0.00 | 0.00 | 39 | 1003.1 |
| 20260902005001 | 82 | 29 | 2.0 | 4.0 | 0.00 | 0.00 | 0.00 | 39 | 1003.1 |
| 20260902004932 | 82 | 144 | 2.0 | 4.0 | 0.00 | 0.00 | 0.00 | 39 | 1003.1 |
| 20260902004908 | 82 | 129 | 1.0 | 4.0 | 0.00 | 0.00 | 0.00 | 40 | 1003.1 |
| 20260902004849 | 82 | 81 | 1.0 | 5.0 | 0.00 | 0.00 | 0.00 | 40 | 1003.1 |
| 20260902004827 | 82 | 108 | 1.0 | 5.0 | 0.00 | 0.00 | 0.00 | 40 | 1003.1 |
| 20260902004748 | 82 | 83 | 1.0 | 5.0 | 0.00 | 0.00 | 0.00 | 39 | 1003.1 |
| 20260902004458 | 82 | 107 | 2.0 | 7.0 | 0.00 | 0.00 | 0.00 | 40 | 1003.1 |
| 20260902004205 | 82 | 65 | 2.0 | 7.0 | 0.00 | 0.00 | 0.00 | 40 | 1003.2 |
| 20260902004129 | 82 | 80 | 3.0 | 7.0 | 0.00 | 0.00 | 0.00 | 40 | 1003.1 |
| 20260902003757 | 82 | 71 | 3.0 | 7.0 | 0.00 | 0.00 | 0.00 | 40 | 1003.1 |
| 20260902003657 | 82 | 83 | 3.0 | 7.0 | 0.00 | 0.00 | 0.00 | 40 | 1003.1 |
| 20260902003557 | 82 | 112 | 3.0 | 7.0 | 0.00 | 0.00 | 0.00 | 40 | 1003.1 |
| 20260902003456 | 82 | 79 | 3.0 | 7.0 | 0.00 | 0.00 | 0.00 | 39 | 1003.2 |
| 20260902003356 | 82 | 77 | 2.0 | 6.0 | 0.00 | 0.00 | 0.00 | 40 | 1003.2 |
| 20260902003255 | 82 | 91 | 2.0 | 6.0 | 0.00 | 0.00 | 0.00 | 40 | 1003.1 |
| 20260902003155 | 82 | 150 | 2.0 | 6.0 | 0.00 | 0.00 | 0.00 | 40 | 1003.1 |
| 20260902003057 | 82 | 66 | 3.0 | 6.0 | 0.00 | 0.00 | 0.00 | 40 | 1003.2 |
| 20260902003006 | 82 | 116 | 3.0 | 6.0 | 0.00 | 0.00 | 0.00 | 40 | 1003.2 |
| 20260902002943 | 82 | 86 | 2.0 | 6.0 | 0.00 | 0.00 | 0.00 | 40 | 1003.2 |
| 20260902002921 | 82 | 103 | 3.0 | 6.0 | 0.00 | 0.00 | 0.00 | 41 | 1003.1 |
| 20260902002617 | 82 | 44 | 3.0 | 6.0 | 0.00 | 0.00 | 0.00 | 40 | 1003.2 |
| 20260902002540 | 82 | 78 | 2.0 | 6.0 | 0.00 | 0.00 | 0.00 | 40 | 1003.2 |
| 20260902002519 | 82 | 82 | 2.0 | 8.0 | 0.00 | 0.00 | 0.00 | 40 | 1003.2 |
| 20260902002149 | 82 | 63 | 2.0 | 8.0 | 0.00 | 0.00 | 0.00 | 41 | 1003.2 |
| 20260902002050 | 82 | 74 | 1.0 | 8.0 | 0.00 | 0.00 | 0.00 | 40 | 1003.2 |
| 20260902001948 | 82 | 115 | 1.0 | 8.0 | 0.00 | 0.00 | 0.00 | 41 | 1003.2 |
| 20260902001903 | 82 | 90 | 3.0 | 8.0 | 0.00 | 0.00 | 0.00 | 41 | 1003.2 |
| 20260902001839 | 82 | 103 | 3.0 | 8.0 | 0.00 | 0.00 | 0.00 | 40 | 1003.2 |
| 20260902001819 | 82 | 135 | 3.0 | 8.0 | 0.00 | 0.00 | 0.00 | 39 | 1003.1 |
| 20260902001447 | 83 | 126 | 3.0 | 8.0 | 0.00 | 0.00 | 0.00 | 39 | 1003.2 |
| 20260902001347 | 83 | 123 | 1.0 | 7.0 | 0.00 | 0.00 | 0.00 | 39 | 1003.1 |
| 20260902001245 | 83 | 65 | 1.0 | 7.0 | 0.00 | 0.00 | 0.00 | 40 | 1003.1 |
| 20260902001144 | 83 | 80 | 2.0 | 7.0 | 0.00 | 0.00 | 0.00 | 40 | 1003.1 |
| 20260902001043 | 83 | 78 | 2.0 | 7.0 | 0.00 | 0.00 | 0.00 | 40 | 1003.1 |
| 20260902000943 | 83 | 74 | 2.0 | 8.0 | 0.00 | 0.00 | 0.00 | 39 | 1003.1 |
| 20260902000842 | 83 | 81 | 3.0 | 8.0 | 0.00 | 0.00 | 0.00 | 39 | 1003.1 |
| 20260902000741 | 83 | 85 | 3.0 | 8.0 | 0.00 | 0.00 | 0.00 | 39 | 1003.2 |
| 20260902000641 | 83 | 141 | 4.0 | 8.0 | 0.00 | 0.00 | 0.00 | 40 | 1003.2 |
| 20260902000541 | 83 | 117 | 3.0 | 8.0 | 0.00 | 0.00 | 0.00 | 40 | 1003.2 |
| 20260902000452 | 83 | 100 | 2.0 | 8.0 | 0.00 | 0.00 | 0.00 | 40 | 1003.2 |
| 20260902000433 | 83 | 120 | 3.0 | 8.0 | 0.00 | 0.00 | 0.00 | 40 | 1003.2 |
| 20260902000414 | 83 | 86 | 3.0 | 8.0 | 0.00 | 0.00 | 0.00 | 40 | 1003.2 |
| 20260902000109 | 83 | 80 | 2.0 | 8.0 | 0.00 | 0.00 | 0.00 | 40 | 1003.2 |
| 20260902000032 | 83 | 124 | 3.0 | 7.0 | 0.00 | 0.00 | 0.00 | 40 | 1003.2 |
| 20260902000009 | 84 | 110 | 4.0 | 7.0 | 0.00 | 0.00 | 0.00 | 39 | 1003.2 |
| 20260901235946 | 84 | 73 | 3.0 | 7.0 | 0.00 | 0.00 | 0.00 | 39 | 1003.2 |
| 20260901235925 | 84 | 111 | 3.0 | 7.0 | 0.00 | 0.00 | 0.00 | 39 | 1003.2 |
| 20260901235900 | 84 | 104 | 3.0 | 7.0 | 0.00 | 0.00 | 0.00 | 38 | 1003.1 |
| 20260901235554 | 84 | 96 | 2.0 | 7.0 | 0.00 | 0.00 | 0.00 | 39 | 1003.2 |
| 20260901235534 | 84 | 92 | 3.0 | 7.0 | 0.00 | 0.00 | 0.00 | 39 | 1003.2 |
| 20260901235242 | 84 | 96 | 4.0 | 7.0 | 0.00 | 0.00 | 0.00 | 38 | 1003.2 |
| 20260901235205 | 84 | 109 | 2.0 | 6.0 | 0.00 | 0.00 | 0.00 | 38 | 1003.2 |
| 20260901235142 | 84 | 67 | 2.0 | 6.0 | 0.00 | 0.00 | 0.00 | 39 | 1003.2 |
| 20260901235122 | 84 | 62 | 2.0 | 6.0 | 0.00 | 0.00 | 0.00 | 38 | 1003.2 |
| 20260901235101 | 84 | 96 | 2.0 | 6.0 | 0.00 | 0.00 | 0.00 | 38 | 1003.2 |
| 20260901234755 | 84 | 112 | 3.0 | 7.0 | 0.00 | 0.00 | 0.00 | 38 | 1003.2 |
| 20260901234733 | 84 | 111 | 3.0 | 7.0 | 0.00 | 0.00 | 0.00 | 38 | 1003.2 |
| 20260901234215 | 84 | 150 | 2.0 | 7.0 | 0.00 | 0.00 | 0.00 | 38 | 1003.2 |
| 20260901233856 | 84 | 164 | 2.0 | 7.0 | 0.00 | 0.00 | 0.00 | 38 | 1003.2 |
| 20260901233835 | 84 | 117 | 3.0 | 7.0 | 0.00 | 0.00 | 0.00 | 38 | 1003.2 |
| 20260901233812 | 84 | 98 | 4.0 | 7.0 | 0.00 | 0.00 | 0.00 | 37 | 1003.3 |
| 20260901233750 | 84 | 23 | 4.0 | 7.0 | 0.00 | 0.00 | 0.00 | 37 | 1003.3 |
| 20260901233714 | 84 | 88 | 3.0 | 7.0 | 0.00 | 0.00 | 0.00 | 37 | 1003.2 |
| 20260901233420 | 84 | 74 | 3.0 | 7.0 | 0.00 | 0.00 | 0.00 | 38 | 1003.2 |
| 20260901233358 | 84 | 143 | 4.0 | 7.0 | 0.00 | 0.00 | 0.00 | 38 | 1003.2 |
| 20260901233337 | 85 | 103 | 4.0 | 7.0 | 0.00 | 0.00 | 0.00 | 38 | 1003.2 |
| 20260901232723 | 85 | 126 | 3.0 | 9.0 | 0.00 | 0.00 | 0.00 | 38 | 1003.2 |
| 20260901232623 | 85 | 121 | 4.0 | 9.0 | 0.00 | 0.00 | 0.00 | 38 | 1003.2 |
| 20260901232522 | 85 | 93 | 3.0 | 9.0 | 0.00 | 0.00 | 0.00 | 38 | 1003.2 |
| 20260901232421 | 85 | 161 | 2.0 | 9.0 | 0.00 | 0.00 | 0.00 | 38 | 1003.2 |
| 20260901232357 | 85 | 115 | 2.0 | 9.0 | 0.00 | 0.00 | 0.00 | 37 | 1003.2 |
| 20260901232337 | 85 | 121 | 2.0 | 9.0 | 0.00 | 0.00 | 0.00 | 37 | 1003.2 |
| 20260901232315 | 85 | 115 | 3.0 | 9.0 | 0.00 | 0.00 | 0.00 | 37 | 1003.3 |
| 20260901232006 | 85 | 67 | 3.0 | 9.0 | 0.00 | 0.00 | 0.00 | 37 | 1003.3 |
| 20260901231949 | 85 | 79 | 2.0 | 9.0 | 0.00 | 0.00 | 0.00 | 37 | 1003.3 |
| 20260901231617 | 85 | 104 | 2.0 | 7.0 | 0.00 | 0.00 | 0.00 | 36 | 1003.3 |
| 20260901231543 | 85 | 78 | 2.0 | 7.0 | 0.00 | 0.00 | 0.00 | 37 | 1003.3 |
| 20260901231507 | 85 | 115 | 3.0 | 7.0 | 0.00 | 0.00 | 0.00 | 37 | 1003.3 |
| 20260901231445 | 84 | 132 | 2.0 | 7.0 | 0.00 | 0.00 | 0.00 | 37 | 1003.3 |
| 20260901231115 | 84 | 123 | 3.0 | 7.0 | 0.00 | 0.00 | 0.00 | 38 | 1003.3 |
| 20260901231018 | 84 | 119 | 3.0 | 7.0 | 0.00 | 0.00 | 0.00 | 37 | 1003.3 |
| 20260901230915 | 84 | 90 | 2.0 | 6.0 | 0.00 | 0.00 | 0.00 | 37 | 1003.3 |
| 20260901230813 | 84 | 26 | 3.0 | 6.0 | 0.00 | 0.00 | 0.00 | 36 | 1003.4 |
| 20260901230744 | 84 | 98 | 2.0 | 7.0 | 0.00 | 0.00 | 0.00 | 38 | 1003.4 |
| 20260901230721 | 84 | 232 | 2.0 | 7.0 | 0.00 | 0.00 | 0.00 | 35 | 1003.4 |
| 20260901230656 | 84 | 59 | 2.0 | 7.0 | 0.00 | 0.00 | 0.00 | 35 | 1003.4 |
| 20260901230311 | 84 | 9 | 3.0 | 7.0 | 0.00 | 0.00 | 0.00 | 35 | 1003.4 |
| 20260901230209 | 84 | 63 | 3.0 | 7.0 | 0.00 | 0.00 | 0.00 | 36 | 1003.4 |
| 20260901230110 | 84 | 48 | 3.0 | 7.0 | 0.00 | 0.00 | 0.00 | 34 | 1003.4 |
| 20260901230009 | 84 | 76 | 3.0 | 7.0 | 0.00 | 0.00 | 0.00 | 34 | 1003.6 |
| 20260901225908 | 84 | 90 | 4.0 | 7.0 | 0.00 | 0.00 | 0.00 | 35 | 1003.6 |
| 20260901225808 | 84 | 75 | 4.0 | 7.0 | 0.00 | 0.00 | 0.00 | 34 | 1003.6 |
| 20260901225707 | 85 | 62 | 3.0 | 9.0 | 0.00 | 0.00 | 0.00 | 35 | 1003.6 |
| 20260901225607 | 84 | 93 | 2.0 | 9.0 | 0.00 | 0.00 | 0.00 | 36 | 1003.6 |
| 20260901225506 | 84 | 100 | 2.0 | 9.0 | 0.00 | 0.00 | 0.00 | 37 | 1003.6 |
| 20260901225418 | 84 | 53 | 2.0 | 9.0 | 0.00 | 0.00 | 0.00 | 37 | 1003.6 |
| 20260901225354 | 84 | 81 | 2.0 | 9.0 | 0.00 | 0.00 | 0.00 | 37 | 1003.6 |
| 20260901225333 | 84 | 77 | 4.0 | 9.0 | 0.00 | 0.00 | 0.00 | 36 | 1003.7 |
| 20260901225003 | 84 | 74 | 4.0 | 9.0 | 0.00 | 0.00 | 0.00 | 36 | 1003.7 |
| 20260901224901 | 84 | 77 | 4.0 | 9.0 | 0.00 | 0.00 | 0.00 | 36 | 1003.7 |
| 20260901224804 | 84 | 93 | 4.0 | 9.0 | 0.00 | 0.00 | 0.00 | 36 | 1003.7 |
| 20260901224701 | 84 | 101 | 3.0 | 7.0 | 0.00 | 0.00 | 0.00 | 37 | 1003.8 |
| 20260901224605 | 84 | 78 | 3.0 | 7.0 | 0.00 | 0.00 | 0.00 | 36 | 1003.7 |
| 20260901224502 | 84 | 69 | 2.0 | 7.0 | 0.00 | 0.00 | 0.00 | 38 | 1003.8 |
| 20260901224403 | 84 | 78 | 2.0 | 7.0 | 0.00 | 0.00 | 0.00 | 38 | 1003.8 |
| 20260901224312 | 84 | 72 | 2.0 | 7.0 | 0.00 | 0.00 | 0.00 | 38 | 1003.8 |
| 20260901224252 | 84 | 78 | 2.0 | 7.0 | 0.00 | 0.00 | 0.00 | 39 | 1003.9 |
| 20260901224228 | 84 | 124 | 3.0 | 7.0 | 0.00 | 0.00 | 0.00 | 39 | 1003.8 |
| 20260901224207 | 84 | 144 | 3.0 | 7.0 | 0.00 | 0.00 | 0.00 | 39 | 1003.9 |
| 20260901224132 | 84 | 65 | 3.0 | 7.0 | 0.00 | 0.00 | 0.00 | 39 | 1003.9 |
| 20260901224109 | 84 | 167 | 4.0 | 7.0 | 0.00 | 0.00 | 0.00 | 39 | 1003.9 |
| 20260901224047 | 84 | 121 | 3.0 | 7.0 | 0.00 | 0.00 | 0.00 | 40 | 1003.9 |
| 20260901223755 | 84 | 115 | 2.0 | 8.0 | 0.00 | 0.00 | 0.00 | 39 | 1003.9 |
| 20260901223719 | 84 | 94 | 2.0 | 8.0 | 0.00 | 0.00 | 0.00 | 39 | 1003.9 |
| 20260901223701 | 83 | 106 | 1.0 | 8.0 | 0.00 | 0.00 | 0.00 | 39 | 1003.9 |
| 20260901223640 | 83 | 86 | 2.0 | 8.0 | 0.00 | 0.00 | 0.00 | 39 | 1003.9 |
| 20260901223618 | 83 | 120 | 3.0 | 8.0 | 0.00 | 0.00 | 0.00 | 40 | 1003.9 |
| 20260901223559 | 83 | 184 | 3.0 | 8.0 | 0.00 | 0.00 | 0.00 | 39 | 1003.9 |
| 20260901223522 | 84 | 182 | 2.0 | 8.0 | 0.00 | 0.00 | 0.00 | 39 | 1003.9 |
| 20260901223459 | 84 | 150 | 4.0 | 8.0 | 0.00 | 0.00 | 0.00 | 38 | 1003.9 |
| 20260901223436 | 84 | 136 | 4.0 | 8.0 | 0.00 | 0.00 | 0.00 | 38 | 1004.0 |
| 20260901222902 | 84 | 153 | 4.0 | 7.0 | 0.00 | 0.00 | 0.00 | 38 | 1003.9 |
| 20260901222840 | 84 | 134 | 4.0 | 7.0 | 0.00 | 0.00 | 0.00 | 38 | 1004.0 |
| 20260901222818 | 84 | 81 | 5.0 | 7.0 | 0.00 | 0.00 | 0.00 | 38 | 1004.0 |
| 20260901222758 | 85 | 172 | 5.0 | 7.0 | 0.00 | 0.00 | 0.00 | 38 | 1004.0 |
| 20260901222736 | 85 | 159 | 3.0 | 7.0 | 0.00 | 0.00 | 0.00 | 37 | 1004.0 |
| 20260901222432 | 85 | 181 | 3.0 | 6.0 | 0.00 | 0.00 | 0.00 | 34 | 1004.0 |
| 20260901221621 | 85 | 196 | 2.0 | 6.0 | 0.00 | 0.00 | 0.00 | 35 | 1004.0 |
| 20260901221559 | 85 | 173 | 2.0 | 6.0 | 0.00 | 0.00 | 0.00 | 34 | 1004.0 |
| 20260901221540 | 85 | 184 | 2.0 | 6.0 | 0.00 | 0.00 | 0.00 | 35 | 1004.0 |
| 20260901221519 | 85 | 174 | 1.0 | 6.0 | 0.00 | 0.00 | 0.00 | 35 | 1004.0 |
| 20260901221458 | 85 | 190 | 1.0 | 6.0 | 0.00 | 0.00 | 0.00 | 35 | 1004.0 |
| 20260901221422 | 85 | 209 | 3.0 | 6.0 | 0.00 | 0.00 | 0.00 | 35 | 1004.0 |
| 20260901220904 | 85 | 264 | 3.0 | 6.0 | 0.00 | 0.00 | 0.00 | 34 | 1003.9 |
| 20260901220840 | 85 | 263 | 2.0 | 6.0 | 0.00 | 0.00 | 0.00 | 34 | 1003.9 |
| 20260901220804 | 85 | 281 | 2.0 | 6.0 | 0.00 | 0.00 | 0.00 | 35 | 1004.0 |
| 20260901220741 | 85 | 184 | 1.0 | 5.0 | 0.00 | 0.00 | 0.00 | 36 | 1003.9 |
| 20260901220720 | 85 | 290 | 1.0 | 6.0 | 0.00 | 0.00 | 0.00 | 36 | 1003.9 |
| 20260901220655 | 84 | 183 | 2.0 | 6.0 | 0.00 | 0.00 | 0.00 | 38 | 1003.9 |
| 20260901220635 | 84 | 270 | 2.0 | 8.0 | 0.00 | 0.00 | 0.00 | 37 | 1003.9 |
| 20260901220559 | 84 | 246 | 1.0 | 8.0 | 0.00 | 0.00 | 0.00 | 37 | 1003.9 |
| 20260901220043 | 84 | 314 | 3.0 | 8.0 | 0.00 | 0.00 | 0.00 | 38 | 1003.9 |
| 20260901215738 | 83 | 130 | 4.0 | 8.0 | 0.00 | 0.00 | 0.00 | 38 | 1003.9 |
| 20260901215716 | 83 | 117 | 5.0 | 8.0 | 0.00 | 0.00 | 0.00 | 37 | 1004.0 |
| 20260901215656 | 83 | 192 | 5.0 | 8.0 | 0.00 | 0.00 | 0.00 | 37 | 1004.0 |
| 20260901215119 | 83 | 150 | 3.0 | 6.0 | 0.00 | 0.00 | 0.00 | 37 | 1004.0 |
| 20260901215056 | 83 | 169 | 2.0 | 7.0 | 0.00 | 0.00 | 0.00 | 38 | 1004.0 |
| 20260901214806 | 83 | 5 | 2.0 | 8.0 | 0.00 | 0.00 | 0.00 | 39 | 1004.0 |
| 20260901214455 | 83 | 236 | 1.0 | 8.0 | 0.00 | 0.00 | 0.00 | 38 | 1004.1 |
| 20260901214433 | 83 | 254 | 2.0 | 8.0 | 0.00 | 0.00 | 0.00 | 38 | 1004.1 |
| 20260901214413 | 83 | 173 | 3.0 | 8.0 | 0.00 | 0.00 | 0.00 | 38 | 1004.1 |
| 20260901214351 | 83 | 211 | 4.0 | 8.0 | 0.00 | 0.00 | 0.00 | 38 | 1004.1 |
| 20260901214045 | 83 | 199 | 4.0 | 8.0 | 0.00 | 0.00 | 0.00 | 38 | 1004.1 |
| 20260901214026 | 83 | 192 | 2.0 | 8.0 | 0.00 | 0.00 | 0.00 | 37 | 1004.2 |
| 20260901213733 | 83 | 159 | 3.0 | 7.0 | 0.00 | 0.00 | 0.00 | 39 | 1004.2 |
| 20260901213402 | 83 | 171 | 2.0 | 7.0 | 0.00 | 0.00 | 0.00 | 40 | 1004.2 |
| 20260901213301 | 83 | 244 | 2.0 | 7.0 | 0.00 | 0.00 | 0.00 | 39 | 1004.2 |
| 20260901213201 | 83 | 202 | 2.0 | 7.0 | 0.00 | 0.00 | 0.00 | 39 | 1004.2 |
| 20260901213130 | 83 | 186 | 2.0 | 7.0 | 0.00 | 0.00 | 0.00 | 40 | 1004.2 |
| 20260901213108 | 83 | 192 | 3.0 | 7.0 | 0.00 | 0.00 | 0.00 | 39 | 1004.2 |
| 20260901213032 | 83 | 262 | 2.0 | 7.0 | 0.00 | 0.00 | 0.00 | 39 | 1004.2 |
| 20260901212700 | 83 | 250 | 2.0 | 5.0 | 0.00 | 0.00 | 0.00 | 40 | 1004.3 |
| 20260901212601 | 83 | 301 | 2.0 | 5.0 | 0.00 | 0.00 | 0.00 | 40 | 1004.3 |
| 20260901212501 | 83 | 194 | 2.0 | 5.0 | 0.00 | 0.00 | 0.00 | 39 | 1004.2 |
| 20260901212415 | 83 | 134 | 2.0 | 6.0 | 0.00 | 0.00 | 0.00 | 39 | 1004.3 |
| 20260901212305 | 83 | 247 | 2.0 | 7.0 | 0.00 | 0.00 | 0.00 | 40 | 1004.4 |
| 20260901212204 | 83 | 273 | 2.0 | 7.0 | 0.00 | 0.00 | 0.00 | 41 | 1004.4 |
| 20260901212104 | 83 | 177 | 2.0 | 7.0 | 0.00 | 0.00 | 0.00 | 41 | 1004.4 |
| 20260901212002 | 82 | 218 | 3.0 | 8.0 | 0.00 | 0.00 | 0.00 | 40 | 1004.4 |
| 20260901211917 | 82 | 250 | 3.0 | 8.0 | 0.00 | 0.00 | 0.00 | 41 | 1004.5 |
| 20260901211800 | 82 | 150 | 2.0 | 8.0 | 0.00 | 0.00 | 0.00 | 41 | 1004.4 |
| 20260901211659 | 82 | 184 | 3.0 | 8.0 | 0.00 | 0.00 | 0.00 | 41 | 1004.5 |
| 20260901211559 | 82 | 259 | 3.0 | 8.0 | 0.00 | 0.00 | 0.00 | 41 | 1004.3 |
| 20260901211524 | 82 | 182 | 3.0 | 8.0 | 0.00 | 0.00 | 0.00 | 41 | 1004.4 |
| 20260901211503 | 82 | 169 | 3.0 | 8.0 | 0.00 | 0.00 | 0.00 | 42 | 1004.4 |
| 20260901211424 | 82 | 241 | 3.0 | 8.0 | 0.00 | 0.00 | 0.00 | 42 | 1004.4 |
| 20260901211403 | 82 | 169 | 2.0 | 8.0 | 0.00 | 0.00 | 0.00 | 42 | 1004.4 |
| 20260901211341 | 81 | 269 | 3.0 | 8.0 | 0.00 | 0.00 | 0.00 | 42 | 1004.5 |
| 20260901211048 | 81 | 141 | 1.0 | 6.0 | 0.00 | 0.00 | 0.00 | 42 | 1004.4 |
| 20260901211013 | 81 | 257 | 1.0 | 6.0 | 0.00 | 0.00 | 0.00 | 43 | 1004.4 |
| 20260901210950 | 80 | 179 | 2.0 | 6.0 | 0.00 | 0.00 | 0.00 | 43 | 1004.5 |
| 20260901210345 | 80 | 252 | 4.0 | 9.0 | 0.00 | 0.00 | 0.00 | 44 | 1004.6 |
| 20260901210245 | 80 | 280 | 4.0 | 9.0 | 0.00 | 0.00 | 0.00 | 43 | 1004.5 |
| 20260901210144 | 80 | 246 | 3.0 | 9.0 | 0.00 | 0.00 | 0.00 | 44 | 1004.6 |
| 20260901210043 | 80 | 259 | 2.0 | 10.0 | 0.00 | 0.00 | 0.00 | 44 | 1004.6 |
| 20260901205942 | 80 | 266 | 2.0 | 10.0 | 0.00 | 0.00 | 0.00 | 45 | 1004.6 |
| 20260901205842 | 80 | 268 | 1.0 | 10.0 | 0.00 | 0.00 | 0.00 | 45 | 1004.6 |
| 20260901205741 | 79 | 278 | 4.0 | 10.0 | 0.00 | 0.00 | 0.00 | 45 | 1004.6 |
| 20260901205642 | 79 | 244 | 6.0 | 10.0 | 0.00 | 0.00 | 0.00 | 44 | 1004.6 |
| 20260901205605 | 80 | 256 | 4.0 | 10.0 | 0.00 | 0.00 | 0.00 | 43 | 1004.6 |
| 20260901205542 | 80 | 244 | 4.0 | 10.0 | 0.00 | 0.00 | 0.00 | 44 | 1004.7 |
| 20260901205506 | 80 | 271 | 5.0 | 10.0 | 0.00 | 0.00 | 0.00 | 45 | 1004.7 |
| 20260901205132 | 80 | 128 | 4.0 | 10.0 | 0.00 | 0.00 | 0.00 | 45 | 1004.7 |
| 20260901205050 | 80 | 249 | 3.0 | 9.0 | 0.00 | 0.00 | 0.00 | 45 | 1004.6 |
| 20260901205030 | 79 | 252 | 3.0 | 8.0 | 0.00 | 0.00 | 0.00 | 45 | 1004.6 |
| 20260901204951 | 79 | 270 | 3.0 | 8.0 | 0.00 | 0.00 | 0.00 | 45 | 1004.7 |
| 20260901204930 | 79 | 272 | 3.0 | 14.0 | 0.00 | 0.00 | 0.00 | 45 | 1004.7 |
| 20260901204908 | 79 | 264 | 2.0 | 14.0 | 0.00 | 0.00 | 0.00 | 44 | 1004.7 |
| 20260901204845 | 79 | 281 | 2.0 | 14.0 | 0.00 | 0.00 | 0.00 | 45 | 1004.7 |
| 20260901204229 | 80 | 177 | 3.0 | 14.0 | 0.00 | 0.00 | 0.00 | 44 | 1004.7 |
| 20260901204129 | 80 | 217 | 3.0 | 14.0 | 0.00 | 0.00 | 0.00 | 44 | 1004.7 |
| 20260901204027 | 80 | 263 | 3.0 | 14.0 | 0.00 | 0.00 | 0.00 | 44 | 1004.7 |
| 20260901203929 | 80 | 209 | 4.0 | 14.0 | 0.00 | 0.00 | 0.00 | 44 | 1004.7 |
| 20260901203827 | 80 | 196 | 3.0 | 14.0 | 0.00 | 0.00 | 0.00 | 44 | 1004.7 |
| 20260901203733 | 80 | 170 | 2.0 | 8.0 | 0.00 | 0.00 | 0.00 | 44 | 1004.7 |
| 20260901203709 | 80 | 261 | 4.0 | 9.0 | 0.00 | 0.00 | 0.00 | 44 | 1004.7 |
| 20260901203645 | 80 | 119 | 4.0 | 9.0 | 0.00 | 0.00 | 0.00 | 44 | 1004.7 |
| 20260901203623 | 80 | 220 | 3.0 | 9.0 | 0.00 | 0.00 | 0.00 | 44 | 1004.7 |
| 20260901203547 | 80 | 159 | 3.0 | 12.0 | 0.00 | 0.00 | 0.00 | 44 | 1004.7 |
| 20260901203523 | 79 | 327 | 1.0 | 12.0 | 0.00 | 0.00 | 0.00 | 44 | 1004.6 |
| 20260901202918 | 79 | 157 | 3.0 | 12.0 | 0.00 | 0.00 | 0.00 | 44 | 1004.7 |
| 20260901202831 | 79 | 239 | 4.0 | 12.0 | 0.00 | 0.00 | 0.00 | 44 | 1004.8 |
| 20260901202806 | 79 | 275 | 4.0 | 12.0 | 0.00 | 0.00 | 0.00 | 45 | 1004.8 |
| 20260901202746 | 78 | 257 | 4.0 | 12.0 | 0.00 | 0.00 | 0.00 | 45 | 1004.9 |
| 20260901202412 | 78 | 284 | 5.0 | 12.0 | 0.00 | 0.00 | 0.00 | 45 | 1005.0 |
| 20260901202312 | 78 | 265 | 4.0 | 10.0 | 0.00 | 0.00 | 0.00 | 46 | 1005.0 |
| 20260901202210 | 78 | 267 | 3.0 | 10.0 | 0.00 | 0.00 | 0.00 | 47 | 1005.0 |
| 20260901202111 | 78 | 256 | 4.0 | 10.0 | 0.00 | 0.00 | 0.00 | 47 | 1005.1 |
| 20260901202037 | 78 | 150 | 6.0 | 10.0 | 0.00 | 0.00 | 0.00 | 46 | 1005.1 |
| 20260901202016 | 78 | 180 | 5.0 | 10.0 | 0.00 | 0.00 | 0.00 | 46 | 1005.1 |
| 20260901201939 | 78 | 163 | 5.0 | 10.0 | 0.00 | 0.00 | 0.00 | 47 | 1005.2 |
| 20260901201608 | 78 | 232 | 4.0 | 10.0 | 0.00 | 0.00 | 0.00 | 47 | 1005.2 |
| 20260901201537 | 77 | 186 | 6.0 | 10.0 | 0.00 | 0.00 | 0.00 | 47 | 1005.2 |
| 20260901201513 | 77 | 175 | 5.0 | 10.0 | 0.00 | 0.00 | 0.00 | 46 | 1005.2 |
| 20260901201438 | 77 | 162 | 3.0 | 8.0 | 0.00 | 0.00 | 0.00 | 47 | 1005.3 |
| 20260901201105 | 77 | 90 | 2.0 | 9.0 | 0.00 | 0.00 | 0.00 | 48 | 1005.4 |
| 20260901201003 | 77 | 157 | 4.0 | 9.0 | 0.00 | 0.00 | 0.00 | 48 | 1005.4 |
| 20260901200903 | 77 | 232 | 3.0 | 9.0 | 0.00 | 0.00 | 0.00 | 48 | 1005.5 |
| 20260901200802 | 76 | 181 | 3.0 | 9.0 | 0.00 | 0.00 | 0.00 | 49 | 1005.4 |
| 20260901200702 | 76 | 306 | 4.0 | 9.0 | 0.00 | 0.00 | 0.00 | 49 | 1005.5 |
| 20260901200632 | 76 | 177 | 5.0 | 9.0 | 0.00 | 0.00 | 0.00 | 49 | 1005.5 |
| 20260901200610 | 76 | 167 | 4.0 | 9.0 | 0.00 | 0.00 | 0.00 | 49 | 1005.5 |
| 20260901200548 | 76 | 139 | 5.0 | 9.0 | 0.00 | 0.00 | 0.00 | 50 | 1005.6 |
| 20260901200228 | 76 | 190 | 3.0 | 9.0 | 0.00 | 0.00 | 0.00 | 50 | 1005.6 |
| 20260901200202 | 75 | 192 | 3.0 | 8.0 | 0.00 | 0.00 | 0.00 | 49 | 1005.6 |
| 20260901200141 | 75 | 195 | 4.0 | 8.0 | 0.00 | 0.00 | 0.00 | 49 | 1005.6 |
| 20260901200120 | 75 | 167 | 3.0 | 8.0 | 0.00 | 0.00 | 0.00 | 51 | 1005.6 |
| 20260901195812 | 75 | 206 | 3.0 | 6.0 | 0.00 | 0.00 | 0.00 | 50 | 1005.6 |
| 20260901195750 | 75 | 195 | 3.0 | 6.0 | 0.00 | 0.00 | 0.00 | 50 | 1005.6 |
| 20260901195729 | 75 | 184 | 2.0 | 6.0 | 0.00 | 0.00 | 0.00 | 50 | 1005.7 |
| 20260901195703 | 75 | 175 | 3.0 | 6.0 | 0.00 | 0.00 | 0.00 | 50 | 1005.7 |
| 20260901195629 | 75 | 182 | 3.0 | 6.0 | 0.00 | 0.00 | 0.00 | 50 | 1005.7 |
| 20260901195607 | 75 | 171 | 2.0 | 6.0 | 0.00 | 0.00 | 0.00 | 50 | 1005.7 |
| 20260901195315 | 75 | 136 | 3.0 | 5.0 | 0.00 | 0.00 | 0.00 | 51 | 1005.7 |
| 20260901194702 | 74 | 130 | 1.0 | 4.0 | 0.00 | 0.00 | 0.00 | 51 | 1005.8 |
| 20260901194602 | 74 | 130 | 1.0 | 4.0 | 0.00 | 0.00 | 0.00 | 52 | 1005.8 |
| 20260901194518 | 74 | 115 | 2.0 | 5.0 | 0.00 | 0.00 | 0.00 | 52 | 1005.9 |
| 20260901194456 | 74 | 148 | 2.0 | 5.0 | 0.00 | 0.00 | 0.00 | 52 | 1005.8 |
| 20260901194419 | 74 | 150 | 2.0 | 5.0 | 0.00 | 0.00 | 0.00 | 51 | 1005.9 |
| 20260901194358 | 74 | 156 | 2.0 | 5.0 | 0.00 | 0.00 | 0.00 | 51 | 1005.9 |
| 20260901194338 | 74 | 172 | 1.0 | 5.0 | 0.00 | 0.00 | 0.00 | 51 | 1005.9 |
| 20260901194314 | 74 | 140 | 1.0 | 5.0 | 0.00 | 0.00 | 0.00 | 52 | 1006.0 |
| 20260901193702 | 74 | 115 | 2.0 | 5.0 | 0.00 | 0.00 | 0.00 | 51 | 1006.0 |
| 20260901193602 | 74 | 150 | 2.0 | 7.0 | 0.00 | 0.00 | 0.00 | 52 | 1006.0 |
| 20260901193502 | 74 | 169 | 2.0 | 8.0 | 0.00 | 0.00 | 0.00 | 51 | 1006.0 |
| 20260901193403 | 74 | 189 | 2.0 | 8.0 | 0.00 | 0.00 | 0.00 | 52 | 1006.1 |
| 20260901193304 | 74 | 202 | 3.0 | 8.0 | 0.00 | 0.00 | 0.00 | 52 | 1006.1 |
| 20260901193201 | 74 | 186 | 2.0 | 8.0 | 0.00 | 0.00 | 0.00 | 52 | 1006.1 |
| 20260901193104 | 74 | 175 | 2.0 | 8.0 | 0.00 | 0.00 | 0.00 | 52 | 1006.1 |
| 20260901193001 | 74 | 208 | 2.0 | 8.0 | 0.00 | 0.00 | 0.00 | 53 | 1006.1 |
| 20260901192902 | 74 | 177 | 3.0 | 8.0 | 0.00 | 0.00 | 0.00 | 53 | 1006.1 |
| 20260901192801 | 74 | 198 | 4.0 | 8.0 | 0.00 | 0.00 | 0.00 | 52 | 1006.0 |
| 20260901192701 | 74 | 111 | 4.0 | 8.0 | 0.00 | 0.00 | 0.00 | 51 | 1006.1 |
| 20260901192602 | 74 | 141 | 2.0 | 8.0 | 0.00 | 0.00 | 0.00 | 52 | 1006.1 |
| 20260901192501 | 74 | 101 | 2.0 | 8.0 | 0.00 | 0.00 | 0.00 | 52 | 1006.0 |
| 20260901192401 | 74 | 183 | 4.0 | 8.0 | 0.00 | 0.00 | 0.00 | 52 | 1006.1 |
| 20260901192313 | 74 | 136 | 5.0 | 8.0 | 0.00 | 0.00 | 0.00 | 52 | 1006.1 |
| 20260901192201 | 74 | 148 | 5.0 | 8.0 | 0.00 | 0.00 | 0.00 | 52 | 1006.1 |
| 20260901192100 | 74 | 188 | 5.0 | 8.0 | 0.00 | 0.00 | 0.00 | 51 | 1006.1 |
| 20260901192000 | 74 | 180 | 5.0 | 8.0 | 0.00 | 0.00 | 0.00 | 52 | 1006.2 |
| 20260901191901 | 74 | 182 | 4.0 | 8.0 | 0.00 | 0.00 | 0.00 | 51 | 1006.1 |
| 20260901191810 | 74 | 186 | 2.0 | 8.0 | 0.00 | 0.00 | 0.00 | 52 | 1006.1 |
| 20260901191701 | 74 | 180 | 2.0 | 5.0 | 0.00 | 0.00 | 0.00 | 53 | 1006.1 |
| 20260901191603 | 74 | 163 | 2.0 | 4.0 | 0.00 | 0.00 | 0.00 | 53 | 1006.0 |
| 20260901191525 | 74 | 176 | 1.0 | 7.0 | 0.00 | 0.00 | 0.00 | 53 | 1005.9 |
| 20260901191502 | 74 | 216 | 1.0 | 7.0 | 0.00 | 0.00 | 0.00 | 53 | 1005.9 |
| 20260901191443 | 74 | 229 | 1.0 | 7.0 | 0.00 | 0.00 | 0.00 | 54 | 1005.9 |
| 20260901191101 | 74 | 185 | 2.0 | 7.0 | 0.00 | 0.00 | 0.00 | 54 | 1006.1 |
| 20260901191027 | 73 | 261 | 2.0 | 7.0 | 0.00 | 0.00 | 0.00 | 54 | 1006.1 |
| 20260901191005 | 73 | 255 | 1.0 | 7.0 | 0.00 | 0.00 | 0.00 | 54 | 1006.1 |
| 20260901190944 | 73 | 289 | 2.0 | 7.0 | 0.00 | 0.00 | 0.00 | 54 | 1006.1 |
| 20260901190602 | 73 | 137 | 3.0 | 9.0 | 0.00 | 0.00 | 0.00 | 53 | 1006.3 |
| 20260901190501 | 73 | 242 | 3.0 | 9.0 | 0.00 | 0.00 | 0.00 | 54 | 1006.3 |
| 20260901190401 | 73 | 170 | 4.0 | 9.0 | 0.00 | 0.00 | 0.00 | 54 | 1006.3 |
| 20260901190306 | 73 | 163 | 4.0 | 9.0 | 0.00 | 0.00 | 0.00 | 53 | 1006.3 |
| 20260901190201 | 73 | 191 | 2.0 | 9.0 | 0.00 | 0.00 | 0.00 | 53 | 1006.2 |
| 20260901190100 | 73 | 172 | 2.0 | 9.0 | 0.00 | 0.00 | 0.00 | 54 | 1006.2 |
| 20260901190000 | 73 | 238 | 4.0 | 11.0 | 0.00 | 0.00 | 0.00 | 54 | 1006.2 |
| 20260901185900 | 73 | 197 | 3.0 | 11.0 | 0.00 | 0.00 | 0.00 | 54 | 1006.3 |
| 20260901185809 | 73 | 202 | 2.0 | 11.0 | 0.00 | 0.00 | 0.00 | 54 | 1006.3 |
| 20260901185703 | 73 | 148 | 4.0 | 11.0 | 0.00 | 0.00 | 0.00 | 54 | 1006.3 |
| 20260901185605 | 73 | 199 | 4.0 | 11.0 | 0.00 | 0.00 | 0.00 | 54 | 1006.3 |
| 20260901185502 | 73 | 197 | 4.0 | 11.0 | 0.00 | 0.00 | 0.00 | 54 | 1006.2 |
| 20260901185401 | 73 | 159 | 3.0 | 11.0 | 0.00 | 0.00 | 0.00 | 54 | 1006.2 |
| 20260901185308 | 73 | 153 | 5.0 | 11.0 | 0.00 | 0.00 | 0.00 | 54 | 1006.2 |
| 20260901185201 | 73 | 150 | 5.0 | 11.0 | 0.00 | 0.00 | 0.00 | 53 | 1006.3 |
| 20260901185101 | 73 | 133 | 3.0 | 11.0 | 0.00 | 0.00 | 0.00 | 53 | 1006.2 |
| 20260901185026 | 73 | 163 | 3.0 | 7.0 | 0.00 | 0.00 | 0.00 | 54 | 1006.2 |
| 20260901185004 | 73 | 196 | 3.0 | 6.0 | 0.00 | 0.00 | 0.00 | 54 | 1006.2 |
| 20260901184942 | 73 | 161 | 2.0 | 6.0 | 0.00 | 0.00 | 0.00 | 54 | 1006.2 |
| 20260901184909 | 73 | 145 | 2.0 | 7.0 | 0.00 | 0.00 | 0.00 | 54 | 1006.2 |
| 20260901184615 | 73 | 169 | 2.0 | 7.0 | 0.00 | 0.00 | 0.00 | 54 | 1006.1 |
| 20260901184553 | 73 | 144 | 2.0 | 7.0 | 0.00 | 0.00 | 0.00 | 54 | 1006.1 |
| 20260901184533 | 73 | 238 | 2.0 | 7.0 | 0.00 | 0.00 | 0.00 | 54 | 1006.1 |
| 20260901184457 | 73 | 229 | 2.0 | 7.0 | 0.00 | 0.00 | 0.00 | 54 | 1006.1 |
| 20260901183901 | 73 | 156 | 2.0 | 7.0 | 0.00 | 0.00 | 0.00 | 54 | 1006.2 |
| 20260901183800 | 73 | 129 | 1.0 | 7.0 | 0.00 | 0.00 | 0.00 | 53 | 1006.1 |
| 20260901183715 | 73 | 202 | 2.0 | 7.0 | 0.00 | 0.00 | 0.00 | 54 | 1006.1 |
| 20260901183650 | 73 | 150 | 4.0 | 7.0 | 0.00 | 0.00 | 0.00 | 53 | 1006.1 |
| 20260901183631 | 73 | 194 | 4.0 | 7.0 | 0.00 | 0.00 | 0.00 | 53 | 1006.1 |
| 20260901183259 | 73 | 132 | 3.0 | 7.0 | 0.00 | 0.00 | 0.00 | 53 | 1006.2 |
| 20260901183159 | 73 | 178 | 3.0 | 6.0 | 0.00 | 0.00 | 0.00 | 53 | 1006.1 |
| 20260901183058 | 73 | 121 | 3.0 | 6.0 | 0.00 | 0.00 | 0.00 | 53 | 1006.2 |
| 20260901182957 | 73 | 127 | 2.0 | 8.0 | 0.00 | 0.00 | 0.00 | 53 | 1006.2 |
| 20260901182857 | 73 | 233 | 2.0 | 8.0 | 0.00 | 0.00 | 0.00 | 53 | 1006.1 |
| 20260901182756 | 73 | 142 | 3.0 | 8.0 | 0.00 | 0.00 | 0.00 | 53 | 1006.1 |
| 20260901182655 | 73 | 210 | 2.0 | 8.0 | 0.00 | 0.00 | 0.00 | 53 | 1006.1 |
| 20260901182607 | 73 | 199 | 2.0 | 8.0 | 0.00 | 0.00 | 0.00 | 53 | 1006.0 |
| 20260901182546 | 73 | 169 | 3.0 | 8.0 | 0.00 | 0.00 | 0.00 | 52 | 1006.0 |
| 20260901182525 | 73 | 229 | 3.0 | 8.0 | 0.00 | 0.00 | 0.00 | 53 | 1006.1 |
| 20260901182154 | 73 | 202 | 5.0 | 8.0 | 0.00 | 0.00 | 0.00 | 53 | 1006.3 |
| 20260901182054 | 73 | 188 | 4.0 | 8.0 | 0.00 | 0.00 | 0.00 | 53 | 1006.4 |
| 20260901181953 | 73 | 180 | 4.0 | 7.0 | 0.00 | 0.00 | 0.00 | 53 | 1006.3 |
| 20260901181852 | 73 | 144 | 2.0 | 7.0 | 0.00 | 0.00 | 0.00 | 53 | 1006.3 |
| 20260901181751 | 73 | 156 | 2.0 | 7.0 | 0.00 | 0.00 | 0.00 | 53 | 1006.3 |
| 20260901181651 | 73 | 188 | 2.0 | 7.0 | 0.00 | 0.00 | 0.00 | 54 | 1006.2 |
| 20260901181551 | 73 | 164 | 2.0 | 7.0 | 0.00 | 0.00 | 0.00 | 54 | 1006.2 |
| 20260901181450 | 73 | 199 | 2.0 | 7.0 | 0.00 | 0.00 | 0.00 | 54 | 1006.2 |
| 20260901181349 | 73 | 167 | 1.0 | 7.0 | 0.00 | 0.00 | 0.00 | 53 | 1006.1 |
| 20260901181248 | 73 | 290 | 2.0 | 7.0 | 0.00 | 0.00 | 0.00 | 53 | 1006.1 |
| 20260901181141 | 73 | 181 | 2.0 | 7.0 | 0.00 | 0.00 | 0.00 | 53 | 1006.1 |
| 20260901181040 | 73 | 170 | 1.0 | 7.0 | 0.00 | 0.00 | 0.00 | 54 | 1006.0 |
| 20260901180941 | 73 | 242 | 1.0 | 5.0 | 0.00 | 0.00 | 0.00 | 54 | 1006.0 |
| 20260901180835 | 73 | 173 | 2.0 | 5.0 | 0.00 | 0.00 | 0.00 | 54 | 1005.9 |
| 20260901180742 | 73 | 178 | 2.0 | 5.0 | 0.00 | 0.00 | 0.00 | 54 | 1006.0 |
| 20260901180634 | 72 | 229 | 2.0 | 5.0 | 0.00 | 0.00 | 0.00 | 54 | 1005.9 |
| 20260901180532 | 72 | 283 | 2.0 | 5.0 | 0.00 | 0.00 | 0.00 | 55 | 1005.9 |
| 20260901180432 | 72 | 284 | 1.0 | 5.0 | 0.00 | 0.00 | 0.00 | 54 | 1006.0 |
| 20260901180334 | 72 | 158 | 2.0 | 5.0 | 0.00 | 0.00 | 0.00 | 54 | 1006.0 |
| 20260901180302 | 72 | 217 | 2.0 | 6.0 | 0.00 | 0.00 | 0.00 | 55 | 1006.1 |
| 20260901180225 | 72 | 304 | 2.0 | 6.0 | 0.00 | 0.00 | 0.00 | 54 | 1006.1 |
| 20260901180202 | 72 | 150 | 2.0 | 6.0 | 0.00 | 0.00 | 0.00 | 54 | 1006.1 |
| 20260901180141 | 72 | 132 | 2.0 | 6.0 | 0.00 | 0.00 | 0.00 | 55 | 1006.1 |
| 20260901180122 | 72 | 178 | 3.0 | 6.0 | 0.00 | 0.00 | 0.00 | 54 | 1006.1 |
| 20260901180059 | 72 | 161 | 2.0 | 7.0 | 0.00 | 0.00 | 0.00 | 54 | 1006.1 |
| 20260901175524 | 72 | 186 | 2.0 | 7.0 | 0.00 | 0.00 | 0.00 | 54 | 1005.9 |
| 20260901175504 | 72 | 192 | 2.0 | 7.0 | 0.00 | 0.00 | 0.00 | 54 | 1005.9 |
| 20260901175128 | 72 | 261 | 1.0 | 7.0 | 0.00 | 0.00 | 0.00 | 54 | 1005.9 |
| 20260901175031 | 72 | 202 | 2.0 | 7.0 | 0.00 | 0.00 | 0.00 | 54 | 1005.9 |
| 20260901174930 | 72 | 261 | 3.0 | 7.0 | 0.00 | 0.00 | 0.00 | 54 | 1005.9 |
| 20260901174829 | 72 | 229 | 3.0 | 7.0 | 0.00 | 0.00 | 0.00 | 54 | 1005.9 |
| 20260901174731 | 72 | 269 | 1.0 | 5.0 | 0.00 | 0.00 | 0.00 | 53 | 1006.0 |
| 20260901174629 | 72 | 292 | 1.0 | 5.0 | 0.00 | 0.00 | 0.00 | 54 | 1006.0 |
| 20260901174528 | 72 | 135 | 2.0 | 5.0 | 0.00 | 0.00 | 0.00 | 53 | 1006.2 |
| 20260901174500 | 71 | 131 | 2.0 | 5.0 | 0.00 | 0.00 | 0.00 | 54 | 1006.3 |
| 20260901174436 | 71 | 261 | 2.0 | 5.0 | 0.00 | 0.00 | 0.00 | 54 | 1006.4 |
| 20260901174414 | 71 | 169 | 1.0 | 5.0 | 0.00 | 0.00 | 0.00 | 54 | 1006.5 |
| 20260901174028 | 71 | 227 | 2.0 | 5.0 | 0.00 | 0.00 | 0.00 | 54 | 1006.4 |
| 20260901173927 | 71 | 186 | 2.0 | 5.0 | 0.00 | 0.00 | 0.00 | 54 | 1006.3 |
| 20260901173828 | 71 | 199 | 2.0 | 5.0 | 0.00 | 0.00 | 0.00 | 55 | 1006.2 |
| 20260901173728 | 71 | 232 | 2.0 | 5.0 | 0.00 | 0.00 | 0.00 | 54 | 1006.3 |
| 20260901173628 | 71 | 178 | 2.0 | 5.0 | 0.00 | 0.00 | 0.00 | 54 | 1006.4 |
| 20260901173527 | 71 | 186 | 2.0 | 3.0 | 0.00 | 0.00 | 0.00 | 55 | 1006.5 |
| 20260901173426 | 71 | 204 | 2.0 | 3.0 | 0.00 | 0.00 | 0.00 | 55 | 1006.5 |
| 20260901173326 | 71 | 178 | 2.0 | 3.0 | 0.00 | 0.00 | 0.00 | 56 | 1006.4 |
| 20260901173225 | 71 | 164 | 2.0 | 3.0 | 0.00 | 0.00 | 0.00 | 55 | 1006.4 |
| 20260901173118 | 70 | 166 | 1.0 | 3.0 | 0.00 | 0.00 | 0.00 | 55 | 1006.4 |
| 20260901173020 | 70 | 156 | 0.0 | 2.0 | 0.00 | 0.00 | 0.00 | 56 | 1006.3 |
| 20260901172919 | 70 | 172 | 0.0 | 3.0 | 0.00 | 0.00 | 0.00 | 56 | 1006.3 |
| 20260901172817 | 70 | 82 | 1.0 | 3.0 | 0.00 | 0.00 | 0.00 | 56 | 1006.3 |
| 20260901172753 | 70 | 74 | 1.0 | 3.0 | 0.00 | 0.00 | 0.00 | 56 | 1006.3 |
| 20260901172721 | 70 | 74 | 1.0 | 3.0 | 0.00 | 0.00 | 0.00 | 57 | 1006.4 |
| 20260901172656 | 70 | 192 | 1.0 | 3.0 | 0.00 | 0.00 | 0.00 | 56 | 1006.5 |
| 20260901172403 | 70 | 111 | 0.0 | 6.0 | 0.00 | 0.00 | 0.00 | 56 | 1006.5 |
| 20260901172331 | 70 | 111 | 1.0 | 6.0 | 0.00 | 0.00 | 0.00 | 56 | 1006.4 |
| 20260901172003 | 70 | 80 | 1.0 | 6.0 | 0.00 | 0.00 | 0.00 | 56 | 1006.4 |
| 20260901171901 | 70 | 78 | 1.0 | 6.0 | 0.00 | 0.00 | 0.00 | 56 | 1006.5 |
| 20260901171802 | 70 | 109 | 1.0 | 6.0 | 0.00 | 0.00 | 0.00 | 55 | 1006.6 |
| 20260901171701 | 70 | 168 | 2.0 | 6.0 | 0.00 | 0.00 | 0.00 | 55 | 1006.6 |
| 20260901171604 | 69 | 124 | 4.0 | 6.0 | 0.00 | 0.00 | 0.00 | 55 | 1006.6 |
| 20260901171501 | 70 | 134 | 3.0 | 6.0 | 0.00 | 0.00 | 0.00 | 54 | 1006.6 |
| 20260901171402 | 70 | 150 | 3.0 | 5.0 | 0.00 | 0.00 | 0.00 | 54 | 1006.6 |
| 20260901171301 | 70 | 148 | 3.0 | 4.0 | 0.00 | 0.00 | 0.00 | 54 | 1006.5 |
| 20260901171214 | 70 | 138 | 3.0 | 4.0 | 0.00 | 0.00 | 0.00 | 54 | 1006.5 |
| 20260901171151 | 70 | 105 | 2.0 | 4.0 | 0.00 | 0.00 | 0.00 | 54 | 1006.5 |
| 20260901171132 | 70 | 152 | 1.0 | 4.0 | 0.00 | 0.00 | 0.00 | 55 | 1006.4 |
| 20260901170830 | 69 | 141 | 1.0 | 3.0 | 0.00 | 0.00 | 0.00 | 55 | 1006.3 |
| 20260901170753 | 69 | 58 | 1.0 | 3.0 | 0.00 | 0.00 | 0.00 | 55 | 1006.1 |
| 20260901170733 | 69 | 76 | 0.0 | 3.0 | 0.00 | 0.00 | 0.00 | 55 | 1006.0 |
| 20260901170401 | 69 | 43 | 1.0 | 3.0 | 0.00 | 0.00 | 0.00 | 55 | 1005.9 |
| 20260901170301 | 69 | 46 | 1.0 | 3.0 | 0.00 | 0.00 | 0.00 | 55 | 1005.9 |
| 20260901170214 | 69 | 15 | 1.0 | 3.0 | 0.00 | 0.00 | 0.00 | 55 | 1005.9 |
| 20260901170036 | 69 | 18 | 1.0 | 3.0 | 0.00 | 0.00 | 0.00 | 54 | 1006.0 |
| 20260901170013 | 69 | 53 | 2.0 | 3.0 | 0.00 | 0.00 | 0.00 | 54 | 1006.0 |
| 20260901165954 | 70 | 53 | 2.0 | 3.0 | 0.00 | 0.00 | 0.00 | 54 | 1005.9 |
| 20260901165647 | 70 | 63 | 1.0 | 3.0 | 0.00 | 0.00 | 0.00 | 54 | 1005.9 |
| 20260901165622 | 70 | 55 | 1.0 | 3.0 | 0.00 | 0.00 | 0.00 | 55 | 1005.9 |
| 20260901165603 | 70 | 49 | 1.0 | 2.0 | 0.00 | 0.00 | 0.00 | 55 | 1006.0 |
| 20260901165543 | 70 | 43 | 1.0 | 2.0 | 0.00 | 0.00 | 0.00 | 55 | 1006.0 |
| 20260901165521 | 70 | 5 | 0.0 | 2.0 | 0.00 | 0.00 | 0.00 | 55 | 1005.9 |
| 20260901164902 | 69 | 92 | 1.0 | 2.0 | 0.00 | 0.00 | 0.00 | 54 | 1006.0 |
| 20260901164818 | 69 | 89 | 1.0 | 2.0 | 0.00 | 0.00 | 0.00 | 54 | 1006.0 |
| 20260901164755 | 69 | 71 | 0.0 | 2.0 | 0.00 | 0.00 | 0.00 | 54 | 1006.0 |
| 20260901164720 | 69 | 29 | 0.0 | 2.0 | 0.00 | 0.00 | 0.00 | 55 | 1006.0 |
| 20260901164658 | 69 | 24 | 1.0 | 2.0 | 0.00 | 0.00 | 0.00 | 54 | 1006.0 |
| 20260901164641 | 69 | 22 | 1.0 | 2.0 | 0.00 | 0.00 | 0.00 | 55 | 1006.0 |
| 20260901164350 | 69 | 32 | 0.0 | 2.0 | 0.00 | 0.00 | 0.00 | 55 | 1006.0 |
| 20260901164319 | 69 | 63 | 0.0 | 2.0 | 0.00 | 0.00 | 0.00 | 55 | 1006.0 |
| 20260901164030 | 69 | 63 | 1.0 | 2.0 | 0.00 | 0.00 | 0.00 | 55 | 1006.0 |
| 20260901163707 | 69 | 62 | 1.0 | 3.0 | 0.00 | 0.00 | 0.00 | 54 | 1006.0 |
| 20260901163619 | 69 | 37 | 1.0 | 3.0 | 0.00 | 0.00 | 0.00 | 54 | 1006.0 |
| 20260901163552 | 69 | 11 | 1.0 | 3.0 | 0.00 | 0.00 | 0.00 | 54 | 1006.0 |
| 20260901163533 | 70 | 19 | 1.0 | 3.0 | 0.00 | 0.00 | 0.00 | 54 | 1006.0 |
| 20260901163206 | 70 | 88 | 1.0 | 3.0 | 0.00 | 0.00 | 0.00 | 55 | 1006.0 |
| 20260901163101 | 69 | 86 | 1.0 | 3.0 | 0.00 | 0.00 | 0.00 | 54 | 1006.1 |
| 20260901163003 | 69 | 86 | 2.0 | 3.0 | 0.00 | 0.00 | 0.00 | 55 | 1006.0 |
| 20260901162928 | 69 | 112 | 1.0 | 3.0 | 0.00 | 0.00 | 0.00 | 55 | 1006.0 |
| 20260901162907 | 69 | 86 | 0.0 | 3.0 | 0.00 | 0.00 | 0.00 | 55 | 1006.0 |
| 20260901162846 | 69 | 78 | 0.0 | 2.0 | 0.00 | 0.00 | 0.00 | 56 | 1006.0 |
| 20260901162502 | 69 | 61 | 1.0 | 2.0 | 0.00 | 0.00 | 0.00 | 56 | 1006.0 |
| 20260901162428 | 69 | 62 | 1.0 | 2.0 | 0.00 | 0.00 | 0.00 | 54 | 1006.1 |
| 20260901162405 | 69 | 65 | 1.0 | 3.0 | 0.00 | 0.00 | 0.00 | 54 | 1006.1 |
| 20260901162345 | 69 | 65 | 1.0 | 3.0 | 0.00 | 0.00 | 0.00 | 54 | 1006.1 |
| 20260901162004 | 69 | 38 | 1.0 | 3.0 | 0.00 | 0.00 | 0.00 | 55 | 1006.1 |
| 20260901161901 | 69 | 19 | 1.0 | 3.0 | 0.00 | 0.00 | 0.00 | 55 | 1006.1 |
| 20260901161803 | 69 | 19 | 1.0 | 3.0 | 0.00 | 0.00 | 0.00 | 55 | 1006.1 |
| 20260901161703 | 69 | 0 | 1.0 | 3.0 | 0.00 | 0.00 | 0.00 | 54 | 1006.1 |
| 20260901161604 | 69 | 51 | 2.0 | 3.0 | 0.00 | 0.00 | 0.00 | 54 | 1006.1 |
| 20260901161502 | 69 | 51 | 2.0 | 3.0 | 0.00 | 0.00 | 0.00 | 54 | 1006.1 |
| 20260901161403 | 69 | 61 | 1.0 | 3.0 | 0.00 | 0.00 | 0.00 | 55 | 1006.2 |
| 20260901161300 | 69 | 98 | 1.0 | 3.0 | 0.00 | 0.00 | 0.00 | 55 | 1006.2 |
| 20260901161203 | 69 | 126 | 0.0 | 3.0 | 0.00 | 0.00 | 0.00 | 54 | 1006.3 |
| 20260901161100 | 69 | 100 | 1.0 | 4.0 | 0.00 | 0.00 | 0.00 | 55 | 1006.3 |
| 20260901161002 | 69 | 100 | 1.0 | 4.0 | 0.00 | 0.00 | 0.00 | 55 | 1006.3 |
| 20260901160902 | 69 | 97 | 2.0 | 4.0 | 0.00 | 0.00 | 0.00 | 55 | 1006.3 |
| 20260901160805 | 69 | 89 | 1.0 | 4.0 | 0.00 | 0.00 | 0.00 | 56 | 1006.3 |
| 20260901160701 | 69 | 95 | 2.0 | 4.0 | 0.00 | 0.00 | 0.00 | 55 | 1006.3 |
| 20260901160604 | 69 | 179 | 2.0 | 4.0 | 0.00 | 0.00 | 0.00 | 54 | 1006.3 |
| 20260901160501 | 68 | 105 | 1.0 | 5.0 | 0.00 | 0.00 | 0.00 | 55 | 1006.3 |
| 20260901160402 | 68 | 82 | 1.0 | 5.0 | 0.00 | 0.00 | 0.00 | 55 | 1006.2 |
| 20260901160301 | 68 | 111 | 2.0 | 5.0 | 0.00 | 0.00 | 0.00 | 55 | 1006.3 |
| 20260901160202 | 68 | 115 | 2.0 | 5.0 | 0.00 | 0.00 | 0.00 | 55 | 1006.3 |
| 20260901160101 | 68 | 72 | 2.0 | 5.0 | 0.00 | 0.00 | 0.00 | 55 | 1006.2 |
| 20260901160003 | 68 | 97 | 2.0 | 5.0 | 0.00 | 0.00 | 0.00 | 56 | 1006.3 |
| 20260901155902 | 68 | 113 | 2.0 | 5.0 | 0.00 | 0.00 | 0.00 | 57 | 1006.3 |
| 20260901155803 | 67 | 78 | 3.0 | 5.0 | 0.00 | 0.00 | 0.00 | 57 | 1006.2 |
| 20260901155701 | 67 | 67 | 2.0 | 5.0 | 0.00 | 0.00 | 0.00 | 57 | 1006.2 |
| 20260901155604 | 67 | 67 | 2.0 | 5.0 | 0.00 | 0.00 | 0.00 | 56 | 1006.2 |
| 20260901155500 | 67 | 74 | 2.0 | 4.0 | 0.00 | 0.00 | 0.00 | 57 | 1006.2 |
| 20260901155403 | 67 | 98 | 2.0 | 3.0 | 0.00 | 0.00 | 0.00 | 57 | 1006.2 |
| 20260901155301 | 67 | 84 | 1.0 | 3.0 | 0.00 | 0.00 | 0.00 | 56 | 1006.2 |
| 20260901155204 | 67 | 107 | 1.0 | 3.0 | 0.00 | 0.00 | 0.00 | 57 | 1006.2 |
| 20260901155101 | 67 | 90 | 1.0 | 3.0 | 0.00 | 0.00 | 0.00 | 56 | 1006.2 |
| 20260901155002 | 67 | 63 | 1.0 | 3.0 | 0.00 | 0.00 | 0.00 | 56 | 1006.1 |
| 20260901154900 | 67 | 57 | 0.0 | 3.0 | 0.00 | 0.00 | 0.00 | 58 | 1006.1 |
| 20260901154803 | 67 | 67 | 1.0 | 3.0 | 0.00 | 0.00 | 0.00 | 58 | 1006.1 |
| 20260901154702 | 67 | 0 | 1.0 | 3.0 | 0.00 | 0.00 | 0.00 | 57 | 1006.1 |
| 20260901154605 | 67 | 0 | 0.0 | 3.0 | 0.00 | 0.00 | 0.00 | 57 | 1006.0 |
| 20260901154503 | 67 | 30 | 1.0 | 3.0 | 0.00 | 0.00 | 0.00 | 58 | 1006.0 |
| 20260901154437 | 67 | 25 | 2.0 | 3.0 | 0.00 | 0.00 | 0.00 | 58 | 1006.0 |
| 20260901154414 | 67 | 5 | 2.0 | 3.0 | 0.00 | 0.00 | 0.00 | 57 | 1005.9 |
| 20260901154356 | 67 | 5 | 0.0 | 3.0 | 0.00 | 0.00 | 0.00 | 57 | 1006.0 |
| 20260901154319 | 67 | 13 | 1.0 | 3.0 | 0.00 | 0.00 | 0.00 | 58 | 1005.9 |
| 20260901154302 | 67 | 352 | 2.0 | 3.0 | 0.00 | 0.00 | 0.00 | 58 | 1006.0 |
| 20260901154241 | 67 | 352 | 1.0 | 3.0 | 0.00 | 0.00 | 0.00 | 56 | 1006.0 |
| 20260901153953 | 67 | 254 | 0.0 | 0.0 | 0.00 | 0.00 | 0.00 | 58 | 1006.0 |
| 20260901153921 | 67 | 254 | 0.0 | 0.0 | 0.00 | 0.00 | 0.00 | 58 | 1005.9 |
| 20260901153901 | 67 | 254 | 0.0 | 0.0 | 0.00 | 0.00 | 0.00 | 58 | 1005.9 |
| 20260901153618 | 67 | 254 | 0.0 | 0.0 | 0.00 | 0.00 | 0.00 | 57 | 1005.9 |
| 20260901153600 | 66 | 254 | 0.0 | 0.0 | 0.00 | 0.00 | 0.00 | 59 | 1005.9 |
| 20260901153526 | 66 | 254 | 0.0 | 0.0 | 0.00 | 0.00 | 0.00 | 58 | 1005.9 |
| 20260901152702 | 66 | 254 | 0.0 | 0.0 | 0.00 | 0.00 | 0.00 | 59 | 1005.9 |
| 20260901152604 | 65 | 254 | 0.0 | 0.0 | 0.00 | 0.00 | 0.00 | 59 | 1005.9 |
| 20260901152502 | 65 | 254 | 0.0 | 0.0 | 0.00 | 0.00 | 0.00 | 59 | 1005.9 |
| 20260901152422 | 65 | 254 | 0.0 | 0.0 | 0.00 | 0.00 | 0.00 | 59 | 1005.9 |
| 20260901152401 | 65 | 254 | 0.0 | 0.0 | 0.00 | 0.00 | 0.00 | 60 | 1005.9 |
| 20260901152342 | 65 | 254 | 0.0 | 0.0 | 0.00 | 0.00 | 0.00 | 60 | 1005.9 |
| 20260901152003 | 65 | 254 | 0.0 | 0.0 | 0.00 | 0.00 | 0.00 | 60 | 1005.9 |
| 20260901151901 | 65 | 254 | 0.0 | 0.0 | 0.00 | 0.00 | 0.00 | 60 | 1006.0 |
| 20260901151804 | 65 | 254 | 0.0 | 0.0 | 0.00 | 0.00 | 0.00 | 60 | 1005.9 |
| 20260901151713 | 65 | 254 | 0.0 | 0.0 | 0.00 | 0.00 | 0.00 | 60 | 1005.9 |
| 20260901151641 | 64 | 254 | 0.0 | 0.0 | 0.00 | 0.00 | 0.00 | 60 | 1005.9 |
| 20260901151618 | 64 | 254 | 0.0 | 0.0 | 0.00 | 0.00 | 0.00 | 60 | 1005.9 |
| 20260901151600 | 64 | 254 | 0.0 | 0.0 | 0.00 | 0.00 | 0.00 | 61 | 1005.9 |
| 20260901151540 | 64 | 254 | 0.0 | 0.0 | 0.00 | 0.00 | 0.00 | 60 | 1005.9 |
| 20260901151521 | 64 | 254 | 0.0 | 0.0 | 0.00 | 0.00 | 0.00 | 60 | 1005.9 |
| 20260901151219 | 64 | 254 | 0.0 | 0.0 | 0.00 | 0.00 | 0.00 | 60 | 1005.9 |
| 20260901151158 | 64 | 254 | 0.0 | 0.0 | 0.00 | 0.00 | 0.00 | 61 | 1005.9 |
| 20260901151140 | 64 | 254 | 0.0 | 0.0 | 0.00 | 0.00 | 0.00 | 60 | 1005.9 |
| 20260901151120 | 64 | 254 | 0.0 | 0.0 | 0.00 | 0.00 | 0.00 | 61 | 1005.9 |
| 20260901151047 | 64 | 254 | 0.0 | 0.0 | 0.00 | 0.00 | 0.00 | 60 | 1005.9 |
| 20260901151026 | 64 | 254 | 0.0 | 0.0 | 0.00 | 0.00 | 0.00 | 60 | 1005.8 |
| 20260901151006 | 63 | 254 | 0.0 | 0.0 | 0.00 | 0.00 | 0.00 | 62 | 1005.8 |
| 20260901150720 | 63 | 254 | 0.0 | 0.0 | 0.00 | 0.00 | 0.00 | 62 | 1005.8 |
| 20260901150647 | 63 | 254 | 0.0 | 0.0 | 0.00 | 0.00 | 0.00 | 62 | 1005.8 |
| 20260901150621 | 63 | 254 | 0.0 | 0.0 | 0.00 | 0.00 | 0.00 | 62 | 1005.9 |
| 20260901150600 | 63 | 254 | 0.0 | 0.0 | 0.00 | 0.00 | 0.00 | 63 | 1005.9 |
| 20260901150312 | 63 | 254 | 0.0 | 0.0 | 0.00 | 0.00 | 0.00 | 64 | 1005.8 |
| 20260901150011 | 62 | 254 | 0.0 | 0.0 | 0.00 | 0.00 | 0.00 | 66 | 1005.8 |
| 20260901145950 | 62 | 254 | 0.0 | 0.0 | 0.00 | 0.00 | 0.00 | 64 | 1005.8 |
| 20260901145932 | 62 | 254 | 0.0 | 0.0 | 0.00 | 0.00 | 0.00 | 64 | 1005.8 |
| 20260901145911 | 62 | 254 | 0.0 | 0.0 | 0.00 | 0.00 | 0.00 | 67 | 1005.9 |
| 20260901145839 | 62 | 254 | 0.0 | 0.0 | 0.00 | 0.00 | 0.00 | 68 | 1005.9 |
| 20260901145818 | 62 | 254 | 0.0 | 0.0 | 0.00 | 0.00 | 0.00 | 68 | 1006.0 |
| 20260901145801 | 62 | 254 | 0.0 | 0.0 | 0.00 | 0.00 | 0.00 | 68 | 1006.0 |
| 20260901145742 | 62 | 254 | 0.0 | 0.0 | 0.00 | 0.00 | 0.00 | 67 | 1005.9 |
| 20260901145723 | 62 | 254 | 0.0 | 0.0 | 0.00 | 0.00 | 0.00 | 69 | 1005.9 |
| 20260901145649 | 62 | 254 | 0.0 | 0.0 | 0.00 | 0.00 | 0.00 | 69 | 1005.9 |
| 20260901145400 | 62 | 254 | 0.0 | 0.0 | 0.00 | 0.00 | 0.00 | 69 | 1005.8 |
| 20260901145342 | 62 | 254 | 0.0 | 0.0 | 0.00 | 0.00 | 0.00 | 68 | 1005.8 |
| 20260901145316 | 62 | 254 | 0.0 | 0.0 | 0.00 | 0.00 | 0.00 | 70 | 1005.9 |
| 20260901145017 | 62 | 254 | 0.0 | 0.0 | 0.00 | 0.00 | 0.00 | 70 | 1005.8 |
| 20260901144955 | 62 | 254 | 0.0 | 0.0 | 0.00 | 0.00 | 0.00 | 70 | 1005.9 |
| 20260901144425 | 61 | 254 | 0.0 | 0.0 | 0.00 | 0.00 | 0.00 | 70 | 1005.8 |
| 20260901144137 | 61 | 254 | 0.0 | 0.0 | 0.00 | 0.00 | 0.00 | 69 | 1005.8 |
| 20260901143849 | 61 | 254 | 0.0 | 0.0 | 0.00 | 0.00 | 0.00 | 68 | 1005.7 |
| 20260901143322 | 61 | 254 | 0.0 | 0.0 | 0.00 | 0.00 | 0.00 | 68 | 1005.7 |
| 20260901143035 | 61 | 254 | 0.0 | 0.0 | 0.00 | 0.00 | 0.00 | 68 | 1005.7 |
| 20260901142726 | 61 | 254 | 0.0 | 0.0 | 0.00 | 0.00 | 0.00 | 68 | 1005.8 |
| 20260901142442 | 61 | 254 | 0.0 | 0.0 | 0.00 | 0.00 | 0.00 | 67 | 1005.8 |
| 20260901142421 | 61 | 254 | 0.0 | 0.0 | 0.00 | 0.00 | 0.00 | 66 | 1005.8 |
| 20260901142121 | 61 | 254 | 0.0 | 0.0 | 0.00 | 0.00 | 0.00 | 67 | 1005.7 |
| 20260901142101 | 61 | 254 | 0.0 | 0.0 | 0.00 | 0.00 | 0.00 | 67 | 1005.7 |
| 20260901141512 | 61 | 254 | 0.0 | 0.0 | 0.00 | 0.00 | 0.00 | 67 | 1005.6 |
| 20260901141452 | 61 | 254 | 0.0 | 0.0 | 0.00 | 0.00 | 0.00 | 67 | 1005.7 |
| 20260901141431 | 61 | 254 | 0.0 | 0.0 | 0.00 | 0.00 | 0.00 | 67 | 1005.6 |
| 20260901141109 | 61 | 254 | 0.0 | 0.0 | 0.00 | 0.00 | 0.00 | 67 | 1005.7 |
| 20260901141034 | 61 | 254 | 0.0 | 0.0 | 0.00 | 0.00 | 0.00 | 67 | 1005.7 |
| 20260901141015 | 61 | 254 | 0.0 | 0.0 | 0.00 | 0.00 | 0.00 | 67 | 1005.7 |
| 20260901140957 | 61 | 254 | 0.0 | 0.0 | 0.00 | 0.00 | 0.00 | 67 | 1005.7 |
| 20260901140708 | 61 | 254 | 0.0 | 0.0 | 0.00 | 0.00 | 0.00 | 67 | 1005.7 |
| 20260901140634 | 61 | 254 | 0.0 | 0.0 | 0.00 | 0.00 | 0.00 | 67 | 1005.6 |
| 20260901140614 | 61 | 254 | 0.0 | 0.0 | 0.00 | 0.00 | 0.00 | 67 | 1005.6 |
| 20260901140555 | 61 | 254 | 0.0 | 0.0 | 0.00 | 0.00 | 0.00 | 67 | 1005.6 |
| 20260901140004 | 61 | 254 | 0.0 | 0.0 | 0.00 | 0.00 | 0.00 | 67 | 1005.5 |
| 20260901135902 | 61 | 254 | 0.0 | 0.0 | 0.00 | 0.00 | 0.00 | 67 | 1005.6 |
| 20260901135802 | 61 | 254 | 0.0 | 0.0 | 0.00 | 0.00 | 0.00 | 67 | 1005.6 |
| 20260901135701 | 61 | 254 | 0.0 | 0.0 | 0.00 | 0.00 | 0.00 | 67 | 1005.5 |
| 20260901135605 | 61 | 254 | 0.0 | 0.0 | 0.00 | 0.00 | 0.00 | 67 | 1005.5 |
| 20260901135501 | 61 | 254 | 0.0 | 0.0 | 0.00 | 0.00 | 0.00 | 67 | 1005.5 |
| 20260901135402 | 61 | 254 | 0.0 | 0.0 | 0.00 | 0.00 | 0.00 | 66 | 1005.5 |
| 20260901135305 | 61 | 254 | 0.0 | 0.0 | 0.00 | 0.00 | 0.00 | 66 | 1005.4 |
| 20260901135204 | 61 | 254 | 0.0 | 0.0 | 0.00 | 0.00 | 0.00 | 66 | 1005.5 |
| 20260901135108 | 61 | 254 | 0.0 | 0.0 | 0.00 | 0.00 | 0.00 | 66 | 1005.5 |
| 20260901135004 | 61 | 254 | 0.0 | 0.0 | 0.00 | 0.00 | 0.00 | 66 | 1005.5 |
| 20260901134901 | 62 | 254 | 0.0 | 0.0 | 0.00 | 0.00 | 0.00 | 65 | 1005.4 |
| 20260901134803 | 62 | 254 | 0.0 | 0.0 | 0.00 | 0.00 | 0.00 | 66 | 1005.4 |
| 20260901134700 | 62 | 254 | 0.0 | 0.0 | 0.00 | 0.00 | 0.00 | 65 | 1005.4 |
| 20260901134605 | 62 | 254 | 0.0 | 0.0 | 0.00 | 0.00 | 0.00 | 66 | 1005.4 |
| 20260901134502 | 62 | 254 | 0.0 | 0.0 | 0.00 | 0.00 | 0.00 | 66 | 1005.4 |
| 20260901134401 | 62 | 254 | 0.0 | 0.0 | 0.00 | 0.00 | 0.00 | 66 | 1005.4 |
| 20260901134301 | 62 | 254 | 0.0 | 0.0 | 0.00 | 0.00 | 0.00 | 66 | 1005.4 |
| 20260901134203 | 62 | 254 | 0.0 | 0.0 | 0.00 | 0.00 | 0.00 | 65 | 1005.4 |
| 20260901134101 | 62 | 254 | 0.0 | 0.0 | 0.00 | 0.00 | 0.00 | 65 | 1005.4 |
| 20260901134002 | 62 | 254 | 0.0 | 0.0 | 0.00 | 0.00 | 0.00 | 65 | 1005.3 |
| 20260901133901 | 62 | 254 | 0.0 | 0.0 | 0.00 | 0.00 | 0.00 | 65 | 1005.3 |
| 20260901133802 | 62 | 254 | 0.0 | 0.0 | 0.00 | 0.00 | 0.00 | 64 | 1005.4 |
| 20260901133701 | 62 | 254 | 0.0 | 0.0 | 0.00 | 0.00 | 0.00 | 63 | 1005.3 |
| 20260901133605 | 62 | 254 | 0.0 | 0.0 | 0.00 | 0.00 | 0.00 | 63 | 1005.3 |
| 20260901133501 | 62 | 254 | 0.0 | 0.0 | 0.00 | 0.00 | 0.00 | 63 | 1005.4 |
| 20260901133403 | 62 | 254 | 0.0 | 0.0 | 0.00 | 0.00 | 0.00 | 63 | 1005.4 |
| 20260901133301 | 62 | 254 | 0.0 | 0.0 | 0.00 | 0.00 | 0.00 | 64 | 1005.3 |
| 20260901133222 | 62 | 254 | 0.0 | 0.0 | 0.00 | 0.00 | 0.00 | 65 | 1005.3 |
| 20260901133200 | 62 | 254 | 0.0 | 0.0 | 0.00 | 0.00 | 0.00 | 64 | 1005.2 |
| 20260901133131 | 62 | 254 | 0.0 | 0.0 | 0.00 | 0.00 | 0.00 | 64 | 1005.3 |
| 20260901132802 | 62 | 254 | 0.0 | 0.0 | 0.00 | 0.00 | 0.00 | 64 | 1005.3 |
| 20260901132701 | 62 | 254 | 0.0 | 0.0 | 0.00 | 0.00 | 0.00 | 64 | 1005.3 |
| 20260901132619 | 62 | 254 | 0.0 | 2.0 | 0.00 | 0.00 | 0.00 | 64 | 1005.2 |
| 20260901132538 | 62 | 254 | 0.0 | 3.0 | 0.00 | 0.00 | 0.00 | 64 | 1005.2 |
| 20260901132520 | 62 | 254 | 0.0 | 3.0 | 0.00 | 0.00 | 0.00 | 64 | 1005.2 |
| 20260901132501 | 62 | 254 | 0.0 | 3.0 | 0.00 | 0.00 | 0.00 | 64 | 1005.2 |
| 20260901132211 | 62 | 254 | 0.0 | 3.0 | 0.00 | 0.00 | 0.00 | 65 | 1005.4 |
| 20260901132140 | 62 | 254 | 0.0 | 3.0 | 0.00 | 0.00 | 0.00 | 64 | 1005.5 |
| 20260901132121 | 62 | 254 | 1.0 | 3.0 | 0.00 | 0.00 | 0.00 | 64 | 1005.5 |
| 20260901132100 | 62 | 254 | 2.0 | 4.0 | 0.00 | 0.00 | 0.00 | 63 | 1005.6 |
| 20260901131502 | 63 | 306 | 0.0 | 4.0 | 0.00 | 0.00 | 0.00 | 64 | 1005.4 |
| 20260901131401 | 63 | 60 | 0.0 | 4.0 | 0.00 | 0.00 | 0.00 | 63 | 1005.4 |
| 20260901131302 | 63 | 68 | 1.0 | 4.0 | 0.00 | 0.00 | 0.00 | 63 | 1005.4 |
| 20260901131200 | 63 | 73 | 1.0 | 6.0 | 0.00 | 0.00 | 0.00 | 63 | 1005.4 |
| 20260901131117 | 63 | 78 | 2.0 | 6.0 | 0.00 | 0.00 | 0.00 | 63 | 1005.5 |
| 20260901131041 | 63 | 147 | 2.0 | 9.0 | 0.00 | 0.00 | 0.00 | 63 | 1005.5 |
| 20260901131021 | 63 | 130 | 1.0 | 9.0 | 0.00 | 0.00 | 0.00 | 63 | 1005.5 |
| 20260901130958 | 63 | 134 | 1.0 | 9.0 | 0.00 | 0.00 | 0.00 | 63 | 1005.4 |
| 20260901130937 | 63 | 274 | 2.0 | 9.0 | 0.00 | 0.00 | 0.00 | 63 | 1005.4 |
| 20260901130916 | 63 | 273 | 1.0 | 9.0 | 0.00 | 0.00 | 0.00 | 63 | 1005.2 |
| 20260901130841 | 63 | 294 | 2.0 | 9.0 | 0.00 | 0.00 | 0.00 | 64 | 1005.1 |
| 20260901130821 | 63 | 294 | 3.0 | 9.0 | 0.00 | 0.00 | 0.00 | 64 | 1005.3 |
| 20260901125948 | 62 | 167 | 7.0 | 9.0 | 0.00 | 0.00 | 0.00 | 64 | 1005.7 |
| 20260901125848 | 62 | 177 | 5.0 | 9.0 | 0.00 | 0.00 | 0.00 | 65 | 1005.4 |
| 20260901125748 | 62 | 170 | 2.0 | 9.0 | 0.00 | 0.00 | 0.00 | 65 | 1004.9 |
| 20260901125713 | 62 | 194 | 3.0 | 4.0 | 0.00 | 0.00 | 0.00 | 65 | 1004.4 |
| 20260901125650 | 62 | 308 | 3.0 | 4.0 | 0.00 | 0.00 | 0.00 | 66 | 1004.3 |
| 20260901125615 | 62 | 331 | 2.0 | 4.0 | 0.00 | 0.00 | 0.00 | 66 | 1004.3 |
| 20260901125243 | 62 | 294 | 0.0 | 1.0 | 0.00 | 0.00 | 0.00 | 66 | 1005.0 |
| 20260901125144 | 62 | 228 | 0.0 | 2.0 | 0.00 | 0.00 | 0.00 | 66 | 1005.2 |
| 20260901125100 | 62 | 228 | 0.0 | 2.0 | 0.00 | 0.00 | 0.00 | 65 | 1005.3 |
| 20260901125023 | 62 | 231 | 0.0 | 5.0 | 0.00 | 0.00 | 0.00 | 65 | 1005.2 |
| 20260901125003 | 62 | 231 | 0.0 | 5.0 | 0.00 | 0.00 | 0.00 | 65 | 1005.2 |
| 20260901124630 | 62 | 161 | 0.0 | 5.0 | 0.00 | 0.00 | 0.00 | 64 | 1005.2 |
| 20260901124530 | 62 | 161 | 0.0 | 5.0 | 0.00 | 0.00 | 0.00 | 64 | 1005.2 |
| 20260901124430 | 62 | 161 | 0.0 | 5.0 | 0.00 | 0.00 | 0.00 | 65 | 1005.2 |
| 20260901124331 | 62 | 169 | 1.0 | 5.0 | 0.00 | 0.00 | 0.00 | 65 | 1005.3 |
| 20260901124232 | 62 | 180 | 2.0 | 5.0 | 0.00 | 0.00 | 0.00 | 65 | 1005.4 |
| 20260901124126 | 62 | 172 | 3.0 | 5.0 | 0.00 | 0.00 | 0.00 | 65 | 1005.5 |
| 20260901124030 | 62 | 167 | 4.0 | 5.0 | 0.00 | 0.00 | 0.00 | 65 | 1005.5 |
| 20260901123954 | 62 | 171 | 4.0 | 5.0 | 0.00 | 0.00 | 0.00 | 65 | 1005.5 |
| 20260901123931 | 62 | 169 | 4.0 | 5.0 | 0.00 | 0.00 | 0.00 | 65 | 1005.4 |
| 20260901123910 | 62 | 166 | 2.0 | 5.0 | 0.00 | 0.00 | 0.00 | 65 | 1005.4 |
| 20260901123849 | 62 | 166 | 0.0 | 4.0 | 0.00 | 0.00 | 0.00 | 65 | 1005.3 |
| 20260901123543 | 62 | 187 | 0.0 | 3.0 | 0.00 | 0.00 | 0.00 | 66 | 1005.1 |
| 20260901123207 | 62 | 187 | 0.0 | 4.0 | 0.00 | 0.00 | 0.00 | 66 | 1005.0 |
| 20260901123131 | 62 | 187 | 2.0 | 4.0 | 0.00 | 0.00 | 0.00 | 66 | 1005.0 |
| 20260901123110 | 62 | 187 | 1.0 | 4.0 | 0.00 | 0.00 | 0.00 | 66 | 1005.0 |
| 20260901123036 | 62 | 194 | 0.0 | 4.0 | 0.00 | 0.00 | 0.00 | 66 | 1005.0 |
| 20260901122702 | 62 | 352 | 1.0 | 4.0 | 0.00 | 0.00 | 0.00 | 66 | 1004.8 |
| 20260901122603 | 62 | 352 | 1.0 | 4.0 | 0.00 | 0.00 | 0.00 | 66 | 1004.7 |
| 20260901122509 | 62 | 302 | 2.0 | 4.0 | 0.00 | 0.00 | 0.00 | 66 | 1004.7 |
| 20260901122401 | 61 | 315 | 2.0 | 4.0 | 0.00 | 0.00 | 0.00 | 66 | 1004.7 |
| 20260901122306 | 61 | 308 | 1.0 | 4.0 | 0.00 | 0.00 | 0.00 | 66 | 1004.8 |
| 20260901122201 | 61 | 281 | 0.0 | 2.0 | 0.00 | 0.00 | 0.00 | 67 | 1004.8 |
| 20260901122103 | 61 | 287 | 0.0 | 2.0 | 0.00 | 0.00 | 0.00 | 66 | 1005.0 |
| 20260901122008 | 61 | 173 | 0.0 | 0.0 | 0.00 | 0.00 | 0.00 | 67 | 1005.1 |
| 20260901121905 | 61 | 173 | 0.0 | 0.0 | 0.00 | 0.00 | 0.00 | 67 | 1005.1 |
| 20260901121822 | 61 | 173 | 0.0 | 0.0 | 0.00 | 0.00 | 0.00 | 67 | 1005.1 |
| 20260901121800 | 61 | 173 | 0.0 | 0.0 | 0.00 | 0.00 | 0.00 | 67 | 1005.1 |
| 20260901121740 | 61 | 173 | 0.0 | 0.0 | 0.00 | 0.00 | 0.00 | 67 | 1005.1 |
| 20260901121721 | 61 | 173 | 0.0 | 0.0 | 0.00 | 0.00 | 0.00 | 67 | 1005.1 |
| 20260901121648 | 61 | 173 | 0.0 | 0.0 | 0.00 | 0.00 | 0.00 | 67 | 1005.0 |
| 20260901121628 | 61 | 173 | 0.0 | 0.0 | 0.00 | 0.00 | 0.00 | 67 | 1005.0 |
| 20260901121341 | 61 | 173 | 0.0 | 0.0 | 0.00 | 0.00 | 0.00 | 67 | 1005.1 |
| 20260901121321 | 61 | 173 | 0.0 | 0.0 | 0.00 | 0.00 | 0.00 | 67 | 1005.2 |
| 20260901121250 | 61 | 173 | 0.0 | 0.0 | 0.00 | 0.00 | 0.00 | 67 | 1005.3 |
| 20260901121005 | 61 | 173 | 0.0 | 0.0 | 0.00 | 0.00 | 0.00 | 66 | 1005.3 |
| 20260901120715 | 61 | 173 | 0.0 | 0.0 | 0.00 | 0.00 | 0.00 | 66 | 1005.2 |
| 20260901120641 | 61 | 173 | 0.0 | 0.0 | 0.00 | 0.00 | 0.00 | 66 | 1005.2 |
| 20260901120621 | 61 | 173 | 0.0 | 0.0 | 0.00 | 0.00 | 0.00 | 66 | 1005.3 |
| 20260901120558 | 61 | 173 | 0.0 | 0.0 | 0.00 | 0.00 | 0.00 | 66 | 1005.3 |
| 20260901120539 | 61 | 173 | 0.0 | 0.0 | 0.00 | 0.00 | 0.00 | 66 | 1005.4 |
| 20260901120514 | 61 | 173 | 0.0 | 0.0 | 0.00 | 0.00 | 0.00 | 66 | 1005.4 |
| 20260901120216 | 61 | 173 | 0.0 | 0.0 | 0.00 | 0.00 | 0.00 | 66 | 1005.5 |
| 20260901115646 | 61 | 173 | 0.0 | 0.0 | 0.00 | 0.00 | 0.00 | 65 | 1005.5 |
| 20260901115358 | 61 | 173 | 0.0 | 0.0 | 0.00 | 0.00 | 0.00 | 65 | 1005.3 |
| 20260901115032 | 61 | 173 | 0.0 | 0.0 | 0.00 | 0.00 | 0.00 | 65 | 1005.2 |
| 20260901114930 | 61 | 173 | 0.0 | 0.0 | 0.00 | 0.00 | 0.00 | 65 | 1005.3 |
| 20260901114831 | 61 | 173 | 0.0 | 0.0 | 0.00 | 0.00 | 0.00 | 65 | 1005.2 |
| 20260901114730 | 61 | 173 | 0.0 | 0.0 | 0.00 | 0.00 | 0.00 | 65 | 1005.2 |
| 20260901114633 | 61 | 173 | 0.0 | 0.0 | 0.00 | 0.00 | 0.00 | 65 | 1005.2 |
| 20260901114530 | 61 | 173 | 0.0 | 0.0 | 0.00 | 0.00 | 0.00 | 64 | 1005.2 |
| 20260901114438 | 61 | 173 | 0.0 | 0.0 | 0.00 | 0.00 | 0.00 | 64 | 1005.2 |
| 20260901114416 | 61 | 173 | 0.0 | 0.0 | 0.00 | 0.00 | 0.00 | 64 | 1005.2 |
| 20260901114358 | 61 | 173 | 0.0 | 0.0 | 0.00 | 0.00 | 0.00 | 64 | 1005.2 |
| 20260901114031 | 61 | 173 | 0.0 | 0.0 | 0.00 | 0.00 | 0.00 | 64 | 1005.2 |
| 20260901113928 | 61 | 173 | 0.0 | 0.0 | 0.00 | 0.00 | 0.00 | 64 | 1005.2 |
| 20260901113836 | 61 | 173 | 0.0 | 0.0 | 0.00 | 0.00 | 0.00 | 64 | 1005.2 |
| 20260901113812 | 61 | 173 | 0.0 | 0.0 | 0.00 | 0.00 | 0.00 | 64 | 1005.3 |
| 20260901113753 | 61 | 173 | 0.0 | 0.0 | 0.00 | 0.00 | 0.00 | 64 | 1005.3 |
| 20260901113732 | 61 | 173 | 0.0 | 2.0 | 0.00 | 0.00 | 0.00 | 64 | 1005.3 |
| 20260901113658 | 61 | 173 | 0.0 | 2.0 | 0.00 | 0.00 | 0.00 | 64 | 1005.4 |
| 20260901113101 | 61 | 173 | 0.0 | 2.0 | 0.00 | 0.00 | 0.00 | 63 | 1005.3 |
| 20260901113004 | 61 | 173 | 0.0 | 2.0 | 0.00 | 0.00 | 0.00 | 63 | 1005.4 |
| 20260901112903 | 61 | 173 | 0.0 | 2.0 | 0.00 | 0.00 | 0.00 | 63 | 1005.3 |
| 20260901112805 | 61 | 173 | 0.0 | 2.0 | 0.00 | 0.00 | 0.00 | 64 | 1005.3 |
| 20260901112702 | 61 | 173 | 1.0 | 2.0 | 0.00 | 0.00 | 0.00 | 63 | 1005.3 |
| 20260901112604 | 61 | 173 | 1.0 | 2.0 | 0.00 | 0.00 | 0.00 | 63 | 1005.3 |
| 20260901112541 | 61 | 173 | 0.0 | 2.0 | 0.00 | 0.00 | 0.00 | 63 | 1005.3 |
| 20260901112507 | 61 | 190 | 0.0 | 0.0 | 0.00 | 0.00 | 0.00 | 64 | 1005.4 |
| 20260901112449 | 61 | 190 | 0.0 | 0.0 | 0.00 | 0.00 | 0.00 | 65 | 1005.2 |
| 20260901112431 | 61 | 190 | 0.0 | 0.0 | 0.00 | 0.00 | 0.00 | 64 | 1005.2 |
| 20260901112144 | 61 | 190 | 0.0 | 0.0 | 0.00 | 0.00 | 0.00 | 63 | 1005.1 |
| 20260901111804 | 61 | 190 | 0.0 | 0.0 | 0.00 | 0.00 | 0.00 | 63 | 1005.1 |
| 20260901111703 | 61 | 190 | 0.0 | 0.0 | 0.00 | 0.00 | 0.00 | 63 | 1005.0 |
| 20260901111605 | 61 | 190 | 0.0 | 0.0 | 0.00 | 0.00 | 0.00 | 62 | 1005.1 |
| 20260901111503 | 61 | 190 | 0.0 | 0.0 | 0.00 | 0.00 | 0.00 | 62 | 1005.0 |
| 20260901111410 | 61 | 190 | 0.0 | 0.0 | 0.00 | 0.00 | 0.00 | 62 | 1005.0 |
| 20260901111346 | 61 | 190 | 0.0 | 0.0 | 0.00 | 0.00 | 0.00 | 62 | 1005.0 |
| 20260901111328 | 61 | 190 | 0.0 | 0.0 | 0.00 | 0.00 | 0.00 | 62 | 1005.0 |
| 20260901111004 | 61 | 190 | 0.0 | 0.0 | 0.00 | 0.00 | 0.00 | 62 | 1005.1 |
| 20260901110901 | 61 | 190 | 0.0 | 0.0 | 0.00 | 0.00 | 0.00 | 62 | 1005.0 |
| 20260901110803 | 61 | 190 | 0.0 | 0.0 | 0.00 | 0.00 | 0.00 | 63 | 1005.1 |
| 20260901110701 | 61 | 190 | 0.0 | 0.0 | 0.00 | 0.00 | 0.00 | 63 | 1005.1 |
| 20260901110605 | 61 | 190 | 0.0 | 0.0 | 0.00 | 0.00 | 0.00 | 62 | 1005.1 |
| 20260901110501 | 61 | 190 | 0.0 | 0.0 | 0.00 | 0.00 | 0.00 | 62 | 1005.1 |
| 20260901110414 | 61 | 190 | 0.0 | 0.0 | 0.00 | 0.00 | 0.00 | 61 | 1005.0 |
| 20260901110352 | 61 | 190 | 0.0 | 0.0 | 0.00 | 0.00 | 0.00 | 62 | 1005.1 |
| 20260901110332 | 61 | 190 | 0.0 | 0.0 | 0.00 | 0.00 | 0.00 | 62 | 1005.0 |
| 20260901110003 | 61 | 190 | 0.0 | 0.0 | 0.00 | 0.00 | 0.00 | 61 | 1005.0 |
| 20260901105900 | 61 | 190 | 0.0 | 0.0 | 0.00 | 0.00 | 0.00 | 61 | 1005.1 |
| 20260901105802 | 61 | 190 | 0.0 | 0.0 | 0.00 | 0.00 | 0.00 | 61 | 1005.0 |
| 20260901105703 | 61 | 190 | 0.0 | 0.0 | 0.00 | 0.00 | 0.00 | 62 | 1005.1 |
| 20260901105625 | 61 | 190 | 0.0 | 0.0 | 0.00 | 0.00 | 0.00 | 62 | 1005.0 |
| 20260901105602 | 61 | 190 | 0.0 | 0.0 | 0.00 | 0.00 | 0.00 | 62 | 1005.0 |
| 20260901105530 | 61 | 190 | 0.0 | 0.0 | 0.00 | 0.00 | 0.00 | 62 | 1005.0 |
| 20260901105202 | 61 | 190 | 0.0 | 0.0 | 0.00 | 0.00 | 0.00 | 62 | 1005.1 |
| 20260901105102 | 61 | 190 | 0.0 | 0.0 | 0.00 | 0.00 | 0.00 | 62 | 1005.1 |
| 20260901105002 | 61 | 190 | 0.0 | 0.0 | 0.00 | 0.00 | 0.00 | 62 | 1005.1 |
| 20260901104902 | 61 | 190 | 0.0 | 0.0 | 0.00 | 0.00 | 0.00 | 62 | 1005.2 |
| 20260901104805 | 61 | 190 | 0.0 | 0.0 | 0.00 | 0.00 | 0.00 | 62 | 1005.1 |
| 20260901104703 | 61 | 190 | 0.0 | 0.0 | 0.00 | 0.00 | 0.00 | 62 | 1005.2 |
| 20260901104603 | 61 | 190 | 0.0 | 0.0 | 0.00 | 0.00 | 0.00 | 62 | 1005.2 |
| 20260901104500 | 61 | 190 | 0.0 | 0.0 | 0.00 | 0.00 | 0.00 | 62 | 1005.1 |
| 20260901104409 | 61 | 190 | 0.0 | 0.0 | 0.00 | 0.00 | 0.00 | 61 | 1005.1 |
| 20260901104348 | 61 | 190 | 0.0 | 0.0 | 0.00 | 0.00 | 0.00 | 61 | 1005.1 |
| 20260901104330 | 61 | 190 | 0.0 | 0.0 | 0.00 | 0.00 | 0.00 | 61 | 1005.0 |
| 20260901104003 | 61 | 190 | 0.0 | 0.0 | 0.00 | 0.00 | 0.00 | 61 | 1005.0 |
| 20260901103910 | 61 | 190 | 0.0 | 0.0 | 0.00 | 0.00 | 0.00 | 61 | 1005.0 |
| 20260901103852 | 61 | 190 | 0.0 | 0.0 | 0.00 | 0.00 | 0.00 | 62 | 1005.0 |
| 20260901103831 | 61 | 190 | 0.0 | 0.0 | 0.00 | 0.00 | 0.00 | 61 | 1005.0 |
| 20260901103811 | 61 | 190 | 0.0 | 0.0 | 0.00 | 0.00 | 0.00 | 61 | 1005.0 |
| 20260901103753 | 61 | 190 | 0.0 | 0.0 | 0.00 | 0.00 | 0.00 | 61 | 1005.0 |
| 20260901103722 | 61 | 190 | 0.0 | 0.0 | 0.00 | 0.00 | 0.00 | 61 | 1005.0 |
| 20260901103702 | 61 | 190 | 0.0 | 0.0 | 0.00 | 0.00 | 0.00 | 62 | 1005.1 |
| 20260901102837 | 61 | 190 | 0.0 | 0.0 | 0.00 | 0.00 | 0.00 | 62 | 1005.2 |
| 20260901102736 | 61 | 190 | 0.0 | 0.0 | 0.00 | 0.00 | 0.00 | 62 | 1005.3 |
| 20260901102633 | 61 | 190 | 0.0 | 0.0 | 0.00 | 0.00 | 0.00 | 61 | 1005.2 |
| 20260901102600 | 61 | 190 | 0.0 | 0.0 | 0.00 | 0.00 | 0.00 | 61 | 1005.2 |
| 20260901102538 | 61 | 190 | 0.0 | 0.0 | 0.00 | 0.00 | 0.00 | 61 | 1005.2 |
| 20260901102506 | 61 | 190 | 0.0 | 0.0 | 0.00 | 0.00 | 0.00 | 61 | 1005.1 |
| 20260901102445 | 61 | 190 | 0.0 | 0.0 | 0.00 | 0.00 | 0.00 | 62 | 1005.1 |
| 20260901102427 | 61 | 190 | 0.0 | 0.0 | 0.00 | 0.00 | 0.00 | 62 | 1005.1 |
| 20260901102409 | 61 | 190 | 0.0 | 0.0 | 0.00 | 0.00 | 0.00 | 62 | 1005.1 |
| 20260901102353 | 61 | 190 | 0.0 | 0.0 | 0.00 | 0.00 | 0.00 | 62 | 1005.2 |
| 20260901102321 | 60 | 190 | 0.0 | 0.0 | 0.00 | 0.00 | 0.00 | 61 | 1005.2 |
| 20260901102306 | 60 | 190 | 0.0 | 0.0 | 0.00 | 0.00 | 0.00 | 62 | 1005.2 |
| 20260901102240 | 60 | 190 | 0.0 | 0.0 | 0.00 | 0.00 | 0.00 | 62 | 1005.2 |
| 20260901102221 | 60 | 190 | 0.0 | 0.0 | 0.00 | 0.00 | 0.00 | 62 | 1005.2 |
| 20260901102200 | 60 | 190 | 0.0 | 0.0 | 0.00 | 0.00 | 0.00 | 61 | 1005.2 |
| 20260901101637 | 60 | 190 | 0.0 | 0.0 | 0.00 | 0.00 | 0.00 | 61 | 1005.2 |
| 20260901101618 | 60 | 190 | 0.0 | 0.0 | 0.00 | 0.00 | 0.00 | 61 | 1005.2 |
| 20260901101558 | 60 | 190 | 0.0 | 0.0 | 0.00 | 0.00 | 0.00 | 61 | 1005.2 |
| 20260901101527 | 60 | 190 | 0.0 | 0.0 | 0.00 | 0.00 | 0.00 | 62 | 1005.2 |
| 20260901101010 | 60 | 190 | 0.0 | 0.0 | 0.00 | 0.00 | 0.00 | 62 | 1005.2 |
| 20260901100708 | 60 | 190 | 0.0 | 0.0 | 0.00 | 0.00 | 0.00 | 62 | 1005.2 |
| 20260901100648 | 61 | 190 | 0.0 | 0.0 | 0.00 | 0.00 | 0.00 | 62 | 1005.2 |
| 20260901100632 | 61 | 190 | 0.0 | 0.0 | 0.00 | 0.00 | 0.00 | 62 | 1005.2 |
| 20260901100611 | 61 | 190 | 0.0 | 0.0 | 0.00 | 0.00 | 0.00 | 62 | 1005.2 |
| 20260901100553 | 61 | 190 | 0.0 | 0.0 | 0.00 | 0.00 | 0.00 | 61 | 1005.2 |
| 20260901100521 | 61 | 190 | 0.0 | 0.0 | 0.00 | 0.00 | 0.00 | 61 | 1005.2 |
| 20260901100502 | 61 | 190 | 0.0 | 0.0 | 0.00 | 0.00 | 0.00 | 61 | 1005.2 |
| 20260901100215 | 61 | 190 | 0.0 | 0.0 | 0.00 | 0.00 | 0.00 | 61 | 1005.2 |
| 20260901100158 | 61 | 190 | 0.0 | 0.0 | 0.00 | 0.00 | 0.00 | 62 | 1005.2 |